GFSWCAN_con_3kmhel_084.txt.gz
Helicity
14 18 30 41 45 48 52 58 61 58 51 60 69 68 69 71 75 151 193 177 342 346 321 187 165 289 186 104 71 64 104 117 147 89 112 148 79 2 -31 11 56 44 92 106 106 64 38 44 146 167 126 137 36 136
10 25 31 45 62 69 92 101 88 79 78 85 91 78 58 47 71 120 206 205 186 214 239 197 81 163 175 100 113 70 57 71 130 145 150 111 82 -53 -68 -56 91 41 67 66 51 -14 3 47 50 229 215 175 120 116
23 32 48 69 105 99 74 65 98 88 94 125 128 88 78 71 64 98 250 279 295 184 113 146 184 40 116 196 135 74 70 50 78 88 112 104 70 37 -3 38 81 65 101 79 40 12 6 27 31 24 34 53 138 95
35 42 49 15 14 38 46 79 80 69 62 44 170 80 73 58 63 60 243 285 298 225 148 18 69 52 146 205 224 179 32 35 44 111 144 100 51 20 -39 -7 45 53 79 19 29 0 23 54 93 41 44 18 12 97
67 23 12 14 37 43 46 57 57 56 52 20 139 91 64 75 76 108 256 238 211 238 93 57 109 112 89 77 88 77 46 24 89 95 106 103 62 50 32 16 -82 45 46 88 23 16 9 13 27 -23 -8 31 99 96
23 13 -8 -4 -3 21 23 36 33 52 49 74 71 35 19 82 119 253 237 131 104 -57 48 114 124 138 117 99 110 55 32 71 83 85 99 105 51 50 55 -12 2 -6 54 71 56 81 26 41 64 67 127 124 93 24
45 -9 -6 2 7 35 42 20 40 1 20 24 26 29 50 120 217 287 146 41 1 40 -62 104 189 205 106 142 59 34 110 102 84 84 78 50 32 19 -93 1 127 156 125 71 48 97 94 79 73 117 165 180 205 239
26 -23 -24 -26 1 0 4 -6 -1 16 33 24 21 30 35 119 204 208 177 35 191 -76 -57 140 153 159 244 146 168 79 76 110 63 50 87 49 15 6 -31 -29 55 44 66 97 139 115 130 174 169 199 190 201 305 323
39 16 39 0 -13 -12 11 33 28 25 39 40 54 118 399 278 170 84 52 128 282 212 73 179 184 103 159 148 123 124 115 100 124 49 69 86 57 24 -79 -32 -33 -37 3 -22 65 114 137 208 221 238 247 266 332 335
167 191 191 135 23 25 6 -2 9 126 189 332 378 260 193 155 128 216 179 133 129 49 89 134 183 111 148 224 185 124 93 93 75 58 111 143 95 13 -27 94 105 20 45 39 125 130 183 226 245 263 247 236 288 338
146 161 150 211 171 130 110 134 151 13 185 254 261 359 374 345 237 117 107 79 95 99 107 110 136 115 83 103 124 96 91 106 65 83 162 114 -10 21 21 -37 75 54 170 248 281 361 301 224 246 263 272 312 319 347
182 182 148 164 107 125 97 107 123 148 141 208 290 293 387 240 183 108 94 101 112 89 84 102 117 137 133 118 91 106 91 85 57 126 138 2 12 41 46 106 152 161 214 323 394 459 448 389 295 286 285 294 311 322
139 149 163 176 180 231 182 195 113 168 305 275 224 212 131 147 84 82 74 106 76 87 66 126 170 147 161 158 138 108 91 80 59 83 87 33 87 81 150 172 200 166 186 302 344 362 355 322 308 285 312 318 333 355
43 102 107 144 139 167 162 175 299 200 165 121 130 115 80 75 67 89 95 81 75 90 119 130 157 140 125 116 154 116 65 107 128 88 54 49 134 167 132 189 179 226 155 169 204 265 301 334 353 368 367 356 389 429
128 115 134 203 154 115 130 86 61 27 69 91 80 55 72 80 110 125 125 77 114 141 125 131 116 105 63 26 10 11 38 84 123 104 64 106 99 125 200 269 212 206 210 232 225 271 287 330 352 433 458 467 483 515
84 63 179 186 141 99 87 61 69 53 70 58 50 84 114 85 114 116 134 118 118 124 98 55 -6 -19 -18 -38 -60 45 133 96 74 64 105 92 93 199 218 213 213 237 282 287 279 311 405 496 531 573 600 563 490 392
22 101 207 140 111 85 92 16 33 24 17 34 71 103 62 31 49 66 90 116 127 90 25 -9 -12 1 23 -37 -42 -25 -7 52 106 97 163 180 183 215 289 329 336 341 351 343 364 406 449 439 445 482 443 331 263 232
32 114 84 77 61 82 101 89 58 55 50 73 31 38 33 38 68 62 103 135 67 54 44 33 25 39 20 35 -7 32 93 134 138 126 169 198 254 279 292 330 355 395 448 446 431 393 345 323 299 241 205 179 196 188
11 45 86 91 23 14 41 72 55 70 66 41 35 8 17 63 95 108 114 122 130 138 118 106 120 145 89 95 75 105 171 236 295 372 400 358 335 393 444 449 449 453 420 347 283 263 246 214 163 131 120 130 163 137
55 69 123 82 38 33 26 69 61 49 39 -1 -10 53 38 72 116 124 128 163 133 84 86 78 94 91 63 100 122 147 180 203 240 309 344 339 328 341 333 308 285 233 238 234 246 214 191 188 168 137 120 127 142 137
31 83 106 58 67 27 31 43 57 46 16 -6 -53 7 29 103 182 236 267 255 226 185 150 127 164 188 173 188 197 201 199 188 158 166 171 221 183 216 220 215 197 186 191 179 179 175 168 133 102 122 146 138 135 144
51 78 60 51 10 24 37 67 37 39 40 14 28 30 36 70 119 223 335 415 300 223 126 133 190 183 197 166 144 152 151 174 160 171 169 156 168 174 174 159 168 187 172 129 116 113 104 100 113 129 140 126 131 125
58 77 111 116 17 38 60 75 47 60 45 31 27 20 23 15 24 40 51 202 212 168 116 126 188 224 200 204 223 217 184 166 165 151 147 162 168 160 166 162 132 132 138 122 106 114 114 105 118 116 110 115 123 135
58 86 88 78 75 82 50 61 57 43 38 26 29 34 40 15 0 28 85 107 143 94 67 88 102 124 172 211 217 187 148 137 170 182 144 143 172 166 139 133 127 121 105 99 116 108 90 82 79 91 100 117 116 126
67 55 24 39 32 26 24 31 21 -14 -30 -35 -52 -26 -34 -44 -24 -22 -9 7 49 48 37 59 113 154 156 158 183 202 194 134 142 197 164 129 134 146 157 143 130 99 71 104 98 110 109 113 107 104 102 106 127 121
-28 -41 -63 -42 -22 -39 -43 -33 -15 4 -1 -9 -4 -12 -21 -14 -9 0 -18 -1 11 30 40 59 84 128 183 161 153 191 177 135 165 239 210 126 106 109 104 101 95 87 41 55 77 101 117 130 142 152 144 122 110 108
-9 -12 -25 -23 -51 -34 -17 -10 -3 -2 -4 4 -2 7 6 9 11 9 12 26 33 47 49 61 93 136 142 148 136 143 152 156 146 129 138 163 152 126 98 92 95 51 53 77 69 74 99 114 136 134 127 113 90 80
1 1 13 27 31 50 4 10 16 18 6 6 5 28 14 19 28 37 44 52 84 101 126 141 136 136 130 124 120 124 134 122 134 149 182 216 180 145 124 107 93 121 116 106 104 102 87 77 80 91 112 109 92 60
20 15 30 85 57 60 64 26 5 -5 -16 -4 13 15 30 56 65 69 66 58 80 105 140 151 156 117 121 127 133 112 78 59 85 120 143 120 116 129 82 87 92 98 101 113 111 91 83 68 64 81 76 74 63 71
71 16 25 73 47 17 29 10 27 4 8 12 13 55 103 96 131 120 122 121 126 127 113 105 97 106 113 111 120 158 172 148 100 84 92 90 83 58 78 69 63 72 87 115 120 119 122 118 114 93 104 100 94 87
-17 21 19 0 -33 -55 -54 -57 8 37 10 18 19 53 21 14 69 104 120 76 90 104 115 123 125 107 95 94 92 108 121 135 127 121 102 75 64 74 90 92 79 73 84 90 98 97 80 72 81 85 85 80 79 80
3 -9 -45 -62 -83 -112 -63 -11 -17 -65 -69 -42 -50 -39 -30 0 15 16 43 44 78 99 90 81 86 85 78 75 85 88 84 69 79 67 69 69 84 90 88 82 86 89 87 82 91 101 108 104 95 83 77 70 66 69
7 9 -4 -13 -21 -38 -78 -32 -22 -21 -9 -21 -25 -21 -9 0 7 -9 23 48 34 42 51 55 53 43 45 45 41 46 53 44 48 63 74 77 78 81 88 86 83 94 96 80 72 77 84 81 72 71 71 69 71 75

GFSWCAN_con_3kmhel_087.txt.gz
Helicity
33 47 55 29 4 -2 7 21 33 40 43 50 57 54 44 32 45 117 153 128 256 277 244 199 215 285 269 173 175 64 58 101 141 163 121 110 57 71 29 36 -2 24 19 63 161 99 19 32 88 77 33 77 153 111
36 26 -3 -4 10 21 33 42 46 51 52 50 52 58 73 40 55 76 173 190 221 239 257 312 232 140 200 197 180 146 87 110 113 97 126 116 136 139 62 12 55 29 13 -54 65 9 17 49 67 52 125 138 113 100
14 -1 10 15 15 30 51 68 85 72 69 66 55 54 52 51 56 88 189 194 254 211 227 280 260 180 54 79 133 95 60 71 71 127 148 100 111 98 128 25 -0 54 48 61 57 42 43 49 31 18 21 134 226 94
30 45 49 64 36 -7 21 39 51 57 85 76 89 69 67 55 52 72 159 243 238 204 197 132 112 102 104 95 106 152 91 68 69 61 87 112 126 115 99 72 -29 27 55 76 71 47 24 -42 5 103 44 50 175 223
66 62 16 13 -7 -6 31 40 45 52 66 71 44 134 78 96 88 88 160 236 222 259 53 11 80 112 121 80 66 102 74 45 52 94 39 71 91 115 87 93 -0 5 91 86 2 18 -18 -1 21 37 48 35 55 49
21 25 -8 -4 4 -5 -0 17 52 77 66 99 92 90 89 119 89 197 233 179 194 232 100 -16 2 116 171 109 135 122 151 105 86 73 67 96 99 87 69 69 35 36 20 28 -18 -35 -67 -19 41 -20 31 -4 48 94
19 1 -17 30 17 30 25 17 34 59 56 59 66 63 127 131 197 243 174 76 214 248 121 -25 70 87 48 111 158 188 135 50 53 62 146 148 112 93 78 28 22 29 82 126 123 64 -18 25 63 144 159 109 130 248
15 -2 -1 17 -20 -26 -15 13 35 35 22 -2 37 73 94 128 236 266 201 61 260 244 109 -69 50 140 206 159 135 144 81 -12 65 109 150 175 116 111 57 -18 34 47 56 100 121 130 67 55 126 174 198 155 293 233
31 14 -7 -4 8 -1 2 -41 -20 -14 39 65 67 58 228 309 275 300 37 83 251 222 50 -60 25 190 220 224 147 176 106 64 84 109 114 88 90 73 58 -20 13 57 18 73 84 76 153 211 204 188 173 181 204 212
91 108 19 -10 14 7 4 -0 47 58 95 158 256 332 230 210 210 138 88 90 85 55 7 -124 -19 117 137 166 96 216 209 107 28 50 59 62 77 96 109 106 46 60 14 42 24 104 167 192 199 203 247 294 259 351
113 131 130 65 37 26 34 33 76 164 207 240 315 257 209 217 271 125 63 61 42 46 9 -2 25 125 113 124 135 139 128 113 -3 33 65 43 20 97 189 266 166 89 67 44 108 120 222 235 262 280 288 298 282 283
85 111 87 106 72 63 47 168 171 168 236 235 203 254 219 85 72 47 89 51 59 27 19 54 75 117 137 135 101 115 97 79 46 86 101 59 57 138 190 208 163 78 5 128 180 324 444 420 350 341 315 281 308 370
94 154 175 131 110 139 135 197 223 223 260 274 178 102 46 56 56 78 86 78 19 52 67 87 84 111 139 116 90 67 60 43 97 68 60 48 140 160 136 124 95 111 120 184 233 294 372 416 395 360 411 397 393 438
126 121 151 174 159 174 156 129 191 195 117 132 118 61 90 72 35 64 109 39 65 122 86 130 152 83 112 124 87 57 60 89 95 108 117 104 148 184 134 119 102 95 141 204 236 318 369 417 450 365 422 338 358 401
110 129 122 186 180 127 92 124 81 64 95 78 69 34 50 90 135 152 160 94 119 114 112 157 124 103 100 99 84 113 113 103 70 109 163 139 163 142 149 136 117 197 214 203 215 306 311 330 337 337 360 365 382 437
37 49 142 195 157 111 66 43 96 38 43 17 22 61 100 89 169 163 174 141 160 144 139 132 33 -8 -2 -44 9 22 112 89 58 70 133 191 179 162 136 141 165 190 266 279 303 286 288 316 356 414 450 439 477 474
42 74 170 170 89 75 61 25 51 46 33 40 63 114 67 53 69 79 104 124 161 99 22 17 -32 -49 -24 -17 28 64 116 86 136 135 131 139 145 153 173 191 199 244 294 295 357 343 369 375 443 499 546 461 425 370
51 124 116 95 38 27 30 25 8 19 42 73 23 31 6 23 86 84 116 138 89 45 3 -68 -101 -8 25 32 23 33 148 164 157 148 165 161 154 182 171 191 237 292 361 404 441 426 431 418 411 361 307 259 251 221
51 62 90 69 24 15 24 59 43 27 55 45 33 18 8 77 116 116 113 123 118 126 103 61 61 93 94 78 124 157 167 162 187 216 215 227 251 273 294 300 322 370 400 373 348 363 337 270 209 165 146 146 162 125
43 71 109 69 34 22 32 65 36 31 44 -1 -0 63 52 93 119 128 143 161 125 104 131 123 143 78 -12 86 119 150 163 163 193 208 233 252 260 288 305 305 300 298 315 293 294 254 228 215 178 144 131 122 118 109
52 95 103 69 97 53 28 41 44 40 14 7 -48 15 48 103 197 243 258 245 234 163 159 121 152 110 164 172 183 199 193 203 225 212 166 239 242 219 225 192 170 179 195 172 192 202 178 141 100 105 127 134 126 124
81 103 60 79 45 46 50 82 39 37 28 -5 13 27 48 92 160 265 352 461 325 225 138 148 159 147 164 162 162 176 170 186 158 158 174 163 163 163 171 154 149 169 167 140 122 119 115 93 94 118 140 132 140 133
115 105 68 75 27 39 64 65 47 45 23 22 15 8 22 22 36 46 53 214 237 228 186 162 155 153 135 140 158 179 167 112 108 114 117 132 148 142 149 161 133 118 121 115 98 99 105 108 135 135 127 137 142 148
45 67 68 40 50 34 32 47 44 36 32 28 36 23 28 28 31 52 103 129 172 158 125 134 118 84 116 159 161 143 122 88 103 135 120 106 137 151 142 138 133 130 106 83 98 101 97 103 106 113 111 122 118 117
74 66 53 62 51 46 40 44 50 36 24 21 11 -2 -13 -31 -28 -23 -13 17 75 81 78 64 72 107 102 93 115 137 163 107 98 137 132 99 103 126 150 145 143 113 60 92 84 89 92 99 100 97 96 98 102 94
38 50 25 26 40 26 27 28 25 21 8 -9 -3 -21 -36 -26 -11 -4 -27 -0 23 52 70 62 49 67 106 101 101 142 144 100 108 185 205 151 116 107 116 125 122 105 66 74 82 93 87 83 89 100 99 85 80 90
-6 -11 -16 -2 -23 -30 -21 -9 1 5 7 9 -3 1 5 19 16 -3 -14 -7 5 21 41 64 84 101 102 105 109 119 128 138 130 110 137 171 161 140 109 88 89 58 36 65 77 79 83 86 88 83 82 76 61 64
-13 -19 5 17 21 26 -2 -0 8 8 -6 -16 -7 7 2 6 25 29 32 43 60 61 76 89 111 117 109 101 98 105 119 103 99 105 146 206 195 169 141 115 90 81 64 64 72 82 85 84 90 88 94 89 68 53
-2 -20 8 51 45 61 72 34 1 -19 -28 -19 -21 -20 -2 20 38 42 45 65 68 88 112 117 116 84 86 90 101 106 98 93 119 147 166 134 131 145 102 91 90 92 91 93 83 75 69 70 68 80 85 90 85 91
55 28 49 99 82 56 45 2 3 10 20 12 10 53 109 102 120 96 97 104 104 105 98 96 90 99 109 110 111 128 131 116 91 81 92 87 81 52 63 71 75 83 90 108 122 129 135 129 122 114 118 112 92 86
-10 20 36 38 21 -20 -27 -11 24 43 30 44 45 76 45 27 61 84 81 69 76 84 99 111 122 111 100 101 95 96 103 112 101 104 102 82 66 64 54 42 43 60 79 84 90 100 96 99 100 104 101 94 82 75
-3 -12 -50 -69 -103 -128 -64 -7 -7 -33 -31 -7 -5 3 7 21 34 33 54 54 80 89 82 75 78 78 68 60 71 81 69 55 70 66 70 66 66 55 56 62 67 75 84 94 103 93 85 87 89 78 75 67 63 61
1 -1 -19 -35 -37 -43 -62 -17 -5 8 17 10 12 5 12 20 24 -1 4 28 35 41 51 48 45 46 51 49 45 49 58 55 60 60 59 59 63 65 64 65 68 74 85 89 86 88 97 100 92 76 66 62 62 61

GFSWCAN_con_3kmhel_090.txt.gz
Helicity
8 19 34 46 24 23 32 32 25 16 1 1 -2 4 14 22 14 69 108 161 133 225 154 209 231 204 156 95 129 89 87 81 88 107 144 98 56 73 59 22 -17 -28 30 12 59 42 -20 -35 13 42 84 103 27 102
77 54 35 25 21 19 4 -9 -12 -3 9 23 26 19 14 21 32 57 159 189 177 246 241 202 221 126 186 215 198 150 105 88 90 114 113 94 75 111 83 56 47 -19 13 -0 -21 48 61 -15 24 28 4 32 147 203
18 20 25 30 19 8 5 12 24 37 50 51 49 49 38 27 30 54 163 187 213 239 237 259 221 161 214 176 131 134 165 98 25 59 95 82 93 105 97 88 88 28 9 18 61 73 14 46 16 6 82 29 43 188
54 38 23 10 12 22 23 29 41 45 51 76 69 60 51 28 47 69 199 206 344 291 274 182 84 159 111 86 103 130 90 93 65 79 79 145 118 95 84 93 101 40 16 49 20 47 77 52 -3 -22 2 -56 21 65
49 49 75 49 34 17 -26 7 33 57 58 62 61 93 54 26 29 91 168 167 193 249 151 195 150 112 21 76 51 40 36 65 78 87 58 102 83 87 98 114 96 76 53 26 26 44 69 2 -17 -28 24 11 41 61
22 14 5 -16 -14 29 23 14 26 40 60 64 60 75 63 81 54 135 169 177 124 158 151 133 110 101 41 70 81 80 58 42 127 126 127 42 71 85 64 77 64 64 83 77 58 14 9 42 -1 -45 32 48 -7 73
-3 11 15 7 4 3 14 23 24 52 75 60 42 78 73 109 112 206 128 95 207 224 174 108 41 51 69 166 131 139 104 134 71 52 24 80 82 109 137 -19 65 47 52 58 30 -49 -62 -7 28 -33 39 96 79 -22
9 -1 17 -2 -7 -11 13 44 30 56 83 55 50 87 99 131 215 215 254 33 221 255 148 99 42 35 104 149 127 172 153 174 104 107 113 126 54 118 96 73 72 49 33 52 65 20 16 23 96 94 117 165 164 167
16 10 8 2 2 3 -16 56 32 28 37 48 30 86 396 391 282 293 101 68 173 185 116 35 28 11 120 137 73 191 193 183 146 89 45 28 76 90 106 110 84 48 117 84 60 37 54 107 98 127 138 142 174 156
22 5 6 28 30 47 42 181 11 62 116 264 494 475 378 310 227 169 164 93 108 110 128 6 -14 1 97 110 128 123 211 125 92 146 77 73 61 98 106 94 71 104 81 73 47 44 102 119 135 177 183 181 248 251
19 -1 5 11 26 73 69 167 319 284 241 351 426 342 230 149 320 167 90 88 95 75 45 52 49 32 66 81 103 107 87 199 79 79 97 37 -62 58 114 150 244 202 119 64 52 65 77 129 195 219 224 225 246 269
8 -25 24 61 144 163 131 81 147 199 292 325 311 301 284 234 129 77 68 58 33 24 -6 35 68 54 69 74 138 71 116 135 93 112 104 33 62 87 113 132 155 143 111 98 76 90 160 210 204 242 244 281 333 380
87 99 59 72 201 125 59 115 134 61 156 265 243 161 123 136 56 28 48 51 46 43 44 24 75 63 129 163 93 71 72 87 101 81 59 31 40 56 77 81 117 119 122 104 98 171 208 278 265 315 399 404 443 473
101 67 98 148 113 83 95 59 64 172 129 120 105 69 74 94 44 52 96 86 66 86 60 85 90 38 47 58 54 58 61 56 52 40 26 60 52 50 77 70 95 88 119 88 46 155 242 327 406 455 468 394 494 612
99 56 86 175 88 146 80 61 6 54 20 39 30 79 85 124 134 138 125 54 86 115 121 114 111 63 82 50 50 62 44 39 31 41 90 81 94 96 89 100 126 147 148 137 176 224 272 362 437 558 560 555 586 451
72 43 86 162 110 71 100 70 78 39 6 5 17 33 85 80 179 183 197 154 119 119 120 91 37 19 39 43 28 78 93 81 79 59 47 42 58 69 83 107 118 104 189 223 216 249 341 413 473 461 397 381 344 337
26 40 112 114 73 63 82 65 36 11 -2 10 34 97 65 49 106 116 137 158 130 98 72 90 14 12 25 23 88 150 182 127 74 69 83 107 113 106 117 148 172 203 255 255 280 297 314 334 340 414 433 357 382 408
69 122 130 58 -19 -18 -37 -0 4 20 33 67 29 80 57 55 100 83 122 180 114 51 46 1 22 16 69 72 91 98 126 130 115 107 131 167 180 137 119 160 193 234 277 300 325 339 327 337 378 350 350 341 379 337
64 73 78 65 21 -10 -8 9 11 2 34 27 31 30 32 67 125 130 127 137 137 131 84 18 87 -50 80 104 100 146 154 118 138 177 206 236 193 193 205 204 218 252 289 296 322 349 330 312 264 241 235 205 211 161
46 74 89 72 25 9 10 18 9 4 13 -17 -15 29 41 78 117 135 161 188 162 131 108 11 50 35 51 163 165 173 187 161 165 173 186 223 218 227 231 230 242 271 319 303 286 256 268 279 229 179 158 142 153 139
55 83 86 60 105 42 13 33 19 13 -4 -12 -52 10 46 109 193 220 260 264 248 171 216 261 208 130 142 156 175 194 177 180 186 174 147 158 195 223 213 216 224 244 243 218 224 213 184 153 119 129 152 158 133 121
71 88 81 91 45 26 19 60 31 35 49 10 6 12 37 79 152 248 316 462 337 349 240 171 151 119 123 139 144 152 146 184 167 162 156 155 209 228 221 172 159 197 186 149 124 130 130 119 124 128 139 119 124 117
103 91 67 85 16 33 47 53 42 25 10 6 -2 5 14 9 16 14 33 212 230 268 225 164 142 113 101 107 120 136 129 101 98 116 129 137 137 122 121 132 109 111 129 124 109 118 122 100 112 116 118 128 127 123
87 36 33 25 40 33 35 37 39 22 19 10 -2 -12 2 2 17 50 101 124 178 189 158 141 136 73 78 112 120 137 143 107 80 112 112 94 111 149 152 151 154 140 105 80 92 91 81 90 93 103 102 116 103 92
51 90 62 85 58 70 68 74 77 66 55 55 36 24 6 -7 -2 2 6 47 96 122 134 110 91 92 60 44 71 98 124 79 56 88 120 90 83 115 148 148 147 125 64 90 80 82 80 81 89 91 91 94 101 98
41 61 30 33 42 25 26 18 22 22 19 10 6 -11 -21 -22 -12 -9 -24 24 39 66 87 80 65 72 111 102 77 100 118 95 78 139 177 151 117 89 88 103 103 99 63 53 56 67 69 75 86 99 104 99 97 100
17 21 -8 -0 -22 -28 -10 9 10 5 7 8 -7 -10 -7 11 5 -14 -8 8 18 40 57 68 73 78 89 107 99 103 108 122 118 97 130 175 169 144 106 86 85 60 34 53 58 57 56 58 68 77 82 80 68 66
-24 -23 8 8 12 20 -0 9 20 24 7 -8 -2 21 18 1 2 10 28 45 45 47 61 76 92 91 92 91 92 98 109 100 96 87 115 186 191 174 144 117 94 81 67 65 69 78 73 66 63 62 67 69 65 55
1 -20 7 47 39 51 58 35 10 -10 -25 -12 1 -1 18 42 51 57 73 82 68 85 102 103 111 100 108 105 111 114 110 105 127 151 170 137 131 150 131 106 95 82 79 96 98 82 78 72 67 72 78 79 72 83
48 30 59 101 91 54 41 -0 9 1 -7 -12 -3 50 103 93 103 84 84 90 93 94 90 90 90 100 109 112 124 144 127 117 97 86 83 76 72 74 90 99 97 84 84 99 106 119 130 132 122 114 120 113 100 92
5 32 32 16 -8 -56 -52 -21 2 25 31 45 27 54 32 15 50 77 79 66 65 67 75 83 94 100 91 97 97 97 117 127 107 103 96 77 69 74 75 75 66 68 73 75 78 88 92 99 94 93 91 84 74 67
15 -2 -40 -54 -97 -124 -73 -40 -37 -43 -52 -16 -6 -3 9 27 42 40 68 49 64 74 72 71 80 82 63 52 68 74 65 59 72 67 72 68 74 68 54 46 50 64 75 85 83 82 80 81 79 68 70 65 62 60
18 -2 -29 -52 -66 -69 -69 -16 -9 -5 8 8 15 13 17 23 31 6 10 32 29 28 37 41 45 49 57 60 55 48 55 52 63 69 65 57 51 52 55 58 58 67 77 80 82 77 80 75 71 67 65 58 52 53

GFSWCAN_con_3kmhel_093.txt.gz
Helicity
-30 -16 -7 -1 2 1 -1 -6 -6 -4 -5 -0 -3 -12 -19 -4 -8 -9 -28 92 37 -12 -17 -52 -53 48 65 46 74 34 48 84 46 4 20 49 34 27 24 11 5 16 50 74 8 -18 14 38 15 -18 -88 49 281 189
42 56 62 57 50 36 19 8 2 11 16 15 13 1 -16 -20 -0 17 110 159 151 99 69 -42 46 -70 -56 52 11 75 65 37 30 46 47 36 58 63 50 20 37 4 90 6 -18 -7 12 141 60 50 37 38 199 121
47 35 23 13 11 10 5 10 14 4 -0 -10 -15 -9 -12 -7 7 34 151 206 199 129 143 118 87 -30 73 99 185 107 81 75 52 32 45 38 15 20 64 49 16 9 -28 -21 -38 -16 -36 137 137 46 54 21 -54 3
30 37 46 54 47 43 34 22 11 5 -6 -4 5 14 23 29 18 36 113 200 239 257 203 95 135 181 157 111 88 123 99 116 64 55 55 -21 -12 8 57 41 43 28 28 -1 -20 -29 -30 34 20 98 134 16 -13 25
104 130 129 104 79 54 29 22 8 6 26 19 22 41 42 32 17 64 160 171 252 226 118 200 191 60 51 64 84 96 69 58 53 87 117 112 58 53 79 58 33 90 14 16 -11 48 -5 1 17 101 71 36 23 24
100 56 30 23 25 14 -7 -7 -39 -5 30 39 43 57 34 40 39 162 159 126 177 261 244 187 71 86 128 67 42 64 73 79 81 55 78 60 78 84 12 29 20 14 65 64 39 24 -135 -0 5 -3 20 44 16 36
27 -6 17 15 21 11 -0 -0 11 18 21 20 28 27 60 61 78 193 159 85 132 131 131 143 130 121 44 68 83 100 63 59 86 70 39 105 142 120 121 42 27 16 35 37 29 11 -43 -60 17 -15 5 113 113 65
5 15 21 17 25 20 7 10 14 15 20 10 36 28 87 128 172 171 208 23 196 273 149 107 119 118 94 145 174 150 120 113 83 99 44 4 -6 55 -14 -8 10 37 60 58 34 31 48 -99 16 17 13 103 83 137
15 29 42 9 -10 13 3 -0 1 19 47 47 37 53 116 314 247 270 91 58 155 153 116 99 122 72 65 73 139 125 176 167 106 111 127 97 92 65 38 30 18 66 98 81 59 37 42 24 3 21 57 139 134 213
-2 2 6 9 21 32 79 34 63 79 94 50 171 323 355 315 212 222 209 179 110 104 151 114 110 93 26 97 73 52 99 87 99 128 84 168 125 98 98 55 52 34 34 37 52 32 64 89 63 90 122 123 87 108
-27 47 105 49 21 52 105 123 95 186 233 358 414 315 244 295 276 197 158 103 100 75 69 87 100 70 11 89 35 42 24 142 113 120 143 123 74 55 103 80 55 68 101 103 110 63 41 40 47 68 105 119 132 169
2 50 98 32 46 86 57 82 184 244 292 357 439 475 411 318 208 87 104 77 53 53 39 73 135 148 97 85 56 47 49 34 95 150 139 99 75 75 78 71 49 36 59 132 137 90 63 95 78 114 166 166 186 218
64 36 68 131 103 -0 76 173 233 181 288 341 399 278 188 175 156 118 89 85 49 33 32 64 103 122 124 49 -51 21 71 71 86 117 87 42 41 57 39 24 29 49 53 57 94 111 107 92 105 161 228 250 281 362
69 84 97 99 69 122 112 151 190 213 201 194 224 179 168 151 123 88 86 61 50 57 52 63 61 43 70 65 69 16 23 45 -36 -14 8 57 55 3 -1 13 50 65 85 114 117 124 174 218 250 291 363 372 420 493
47 36 71 146 77 75 117 95 74 70 86 91 110 69 11 54 62 86 72 46 68 97 40 47 20 3 50 52 97 69 -5 -43 -18 24 40 23 29 33 48 56 62 80 121 161 171 189 201 258 317 371 365 380 434 479
23 43 85 147 87 37 14 53 99 31 12 15 28 68 132 82 119 90 119 91 93 106 117 104 56 7 9 33 -4 2 -0 19 50 32 11 14 43 33 52 68 57 118 151 187 190 212 249 284 351 409 425 477 526 536
8 28 143 134 63 57 80 12 -3 -14 -6 24 37 87 91 78 120 126 135 154 109 78 58 65 3 -3 40 31 43 84 92 75 69 71 50 39 36 56 74 52 84 108 149 184 221 264 312 348 396 439 568 539 469 404
47 98 79 41 20 14 -1 26 1 -0 30 86 32 98 87 78 112 106 142 172 108 83 93 64 61 48 61 70 84 77 87 96 101 93 86 51 62 90 115 109 117 106 141 180 219 255 272 284 342 279 319 343 361 327
35 59 60 34 -31 -38 -29 8 15 6 37 36 45 51 47 78 113 109 124 153 167 190 140 78 61 84 110 125 111 108 102 98 106 116 143 155 133 150 188 154 145 155 157 183 199 224 197 229 226 180 186 193 253 225
24 70 85 67 9 -9 -8 14 20 4 12 -9 3 47 43 65 103 130 193 234 192 141 155 39 25 87 157 177 180 168 151 138 155 182 185 183 180 193 192 172 180 193 231 232 244 237 260 279 240 193 176 153 136 111
42 79 74 36 72 21 -5 4 5 -17 -31 -23 -4 14 41 100 137 153 202 249 200 113 175 227 200 248 234 169 135 118 140 132 150 123 129 150 137 174 180 191 183 184 183 181 230 243 209 178 124 111 122 135 127 113
51 66 36 52 16 5 5 51 -11 10 10 -9 -3 8 40 93 147 228 278 388 202 283 259 203 162 108 115 115 82 97 90 127 129 137 143 126 148 167 177 153 150 165 158 140 133 137 119 90 96 125 161 125 102 86
83 66 46 50 15 29 29 15 14 13 7 -0 -3 2 1 -2 9 5 36 168 208 231 205 134 101 51 42 73 92 103 112 95 99 116 127 143 167 164 153 138 92 91 121 132 96 94 102 92 124 128 109 104 106 105
55 30 29 22 29 13 23 28 31 12 6 -3 -13 -17 -4 -6 10 35 63 112 159 164 140 122 97 66 64 74 86 124 140 75 59 114 124 96 144 147 114 105 114 117 87 81 97 110 91 80 78 93 91 96 78 70
22 63 52 47 55 46 39 50 58 28 12 22 -6 -23 -37 -44 -39 -29 1 45 88 109 118 95 58 64 51 49 65 85 122 94 56 78 117 71 56 84 112 115 132 112 76 102 95 84 62 55 68 70 64 69 89 102
16 46 20 20 25 5 6 -1 1 6 3 -6 -13 -21 -34 -39 -32 -33 -48 -4 16 52 74 75 56 49 76 84 76 98 112 88 62 106 147 145 114 81 73 85 98 112 87 48 48 61 63 64 72 86 94 95 99 98
22 31 5 18 3 -15 -16 -0 -0 -5 -6 -1 -4 -6 -9 13 3 -40 -19 5 16 43 49 54 56 64 77 96 106 112 120 130 128 109 125 157 159 143 104 85 91 68 44 46 50 54 60 59 71 77 86 78 65 65
-32 -30 -10 -1 -5 2 -23 -18 -9 -4 -11 -15 -8 23 22 13 5 5 28 50 45 45 54 58 70 73 92 107 104 106 116 109 101 93 115 183 192 182 156 128 117 103 83 66 57 56 52 51 54 61 70 83 78 63
-4 -30 11 30 21 32 46 31 18 -7 -19 -10 5 9 15 47 52 52 64 69 61 64 75 76 83 63 79 89 104 109 101 89 93 121 141 129 131 160 132 104 99 99 93 105 100 78 74 66 64 67 77 80 85 87
51 31 55 93 95 66 56 18 13 -9 -14 -19 -27 25 85 80 96 79 75 77 77 75 69 70 72 79 88 93 109 140 128 115 91 78 78 82 77 61 76 79 78 74 73 87 96 106 114 116 113 102 100 91 80 80
13 40 46 26 -15 -62 -54 -31 -18 3 17 27 16 40 21 6 40 71 89 71 54 54 59 67 82 87 75 80 76 82 109 128 114 107 84 64 65 75 77 75 64 60 62 63 61 74 74 79 81 82 83 83 79 77
13 -4 -50 -82 -127 -156 -119 -83 -72 -55 -59 -37 -21 -16 -8 10 29 26 57 35 44 57 53 43 51 62 51 43 50 54 54 54 67 65 69 61 62 59 57 55 48 46 51 60 59 63 67 70 69 65 69 68 68 66
27 3 -36 -63 -88 -102 -103 -57 -53 -45 -33 -29 -19 -18 -15 -1 7 -7 2 24 23 17 21 22 21 29 41 47 44 42 44 42 52 60 61 58 53 45 39 40 47 56 65 67 68 66 68 70 68 66 66 64 58 52

GFSWCAN_con_3kmhel_096.txt.gz
Helicity
-13 -27 -33 -25 -11 -10 -16 -19 -14 -19 -22 -18 -11 -5 4 22 18 -27 -23 -19 15 -3 -11 -48 -72 -15 10 -2 52 3 -25 26 -8 -5 -7 -3 19 19 34 38 14 10 4 21 29 26 45 53 15 114 114 176 116 61
3 34 54 62 62 55 37 21 8 5 -1 -20 -41 -38 -8 6 16 6 -23 -26 6 -6 -6 -9 3 -14 -14 -4 -6 12 21 -8 -3 6 -9 4 15 23 50 36 -4 30 18 19 19 33 -3 15 11 69 143 142 171 22
66 63 51 40 31 19 13 27 22 10 -0 -3 1 4 -0 -1 5 -1 22 77 42 9 24 14 27 -1 -35 6 22 31 23 17 -11 -3 -7 18 11 19 41 57 41 13 -27 12 5 -13 -7 -10 51 141 51 67 41 -30
69 46 31 26 27 31 21 5 -10 -4 4 -0 3 14 -0 -15 7 -17 1 238 73 131 109 4 -56 -10 137 41 13 30 42 15 32 29 27 -12 -10 -0 -2 37 46 32 2 -3 10 13 -0 -29 -18 34 37 81 17 25
69 85 114 100 91 74 88 97 32 11 11 3 -5 -15 -25 -21 2 56 135 227 226 201 21 -1 68 23 -27 -5 76 22 31 22 27 56 55 19 -4 -17 -39 -27 44 44 30 -1 15 -0 -4 11 12 25 81 93 65 13
85 148 73 61 23 6 12 -1 13 8 6 1 2 -5 -8 15 28 96 134 144 163 162 107 37 38 10 28 22 29 18 1 21 42 73 106 57 32 25 7 -2 5 10 23 22 50 39 -16 -2 22 67 40 46 45 50
119 67 -6 16 27 24 -1 11 9 15 -4 19 18 36 14 27 62 140 124 77 187 207 123 111 93 100 69 36 57 59 26 46 68 87 108 74 2 30 -11 -18 14 20 22 31 33 33 21 14 17 71 41 26 56 100
-0 4 13 14 14 11 11 13 17 16 18 14 37 -0 30 40 187 194 147 76 312 199 139 156 141 120 82 96 71 74 78 82 66 77 75 90 51 73 -19 -24 -21 -7 31 68 79 21 7 2 -6 52 50 37 66 132
6 -1 1 6 3 10 19 6 32 38 33 16 9 39 108 220 235 194 113 109 144 151 99 105 94 76 111 95 98 89 99 101 81 98 109 96 100 121 75 23 -10 -10 13 61 54 17 28 13 30 62 80 67 68 128
-11 27 40 11 29 28 46 15 37 62 41 24 197 255 226 258 151 121 201 140 110 83 115 60 74 87 76 57 64 78 90 96 65 60 113 163 90 69 62 36 13 45 39 34 23 29 26 23 31 69 72 80 68 106
46 33 42 84 43 21 133 31 46 30 125 229 267 296 199 172 289 197 95 105 78 39 51 92 73 93 70 53 69 44 37 74 26 61 71 88 58 42 40 66 108 100 53 52 32 39 44 41 38 64 87 83 104 123
79 7 9 44 51 123 137 67 148 244 211 184 361 329 327 144 154 88 116 108 47 30 36 66 72 66 85 71 57 52 6 27 17 87 81 65 120 175 155 126 75 40 33 50 61 60 69 95 102 111 81 105 121 150
66 62 64 70 177 162 79 123 101 119 92 309 349 283 198 161 116 48 54 77 55 18 47 57 79 81 68 63 52 50 52 17 72 39 65 142 161 140 95 62 18 9 11 18 54 78 128 157 139 145 192 145 104 180
21 -5 59 128 101 107 195 236 247 283 291 326 251 219 189 122 121 105 106 96 78 60 40 10 72 90 117 122 30 -15 -33 25 -32 -9 23 95 58 52 22 -2 3 12 1 21 52 81 111 136 178 202 241 198 212 256
32 38 51 96 135 240 202 215 143 147 255 184 177 141 100 117 125 107 105 93 97 64 46 63 55 25 98 43 57 61 -5 -58 -27 36 56 34 19 1 -9 -13 -14 -2 13 41 81 113 154 184 214 252 282 274 308 394
41 95 22 72 85 89 70 53 73 44 70 76 96 74 132 109 117 127 120 87 85 95 99 57 30 5 31 58 17 36 16 31 58 49 34 21 20 19 6 2 38 63 68 75 119 158 206 261 301 344 412 458 474 495
27 52 123 109 84 121 69 13 25 57 42 32 92 132 111 83 93 98 97 84 104 110 85 100 15 -0 38 3 23 108 80 82 76 68 63 83 43 13 15 19 36 49 52 71 96 122 169 208 227 345 401 391 460 527
11 66 92 98 30 52 3 44 10 3 23 85 65 99 98 115 126 114 138 124 94 53 93 98 97 58 58 50 66 94 84 80 74 76 92 90 58 27 22 42 49 57 78 95 100 138 194 234 295 297 363 320 426 427
45 48 45 7 -13 -27 -23 18 30 23 43 46 63 69 70 79 98 108 125 150 132 157 139 125 75 71 116 142 142 120 100 82 69 70 79 98 87 68 57 67 84 91 100 113 99 132 177 182 169 177 213 220 276 226
28 69 66 34 16 -7 -0 20 40 11 23 21 21 52 44 68 85 103 159 185 199 178 166 153 161 173 159 164 169 145 117 100 101 112 128 129 121 132 121 120 141 144 165 166 184 190 157 155 146 126 152 165 184 170
29 61 53 24 57 10 -2 18 22 9 -17 -22 -22 36 47 91 112 119 173 212 189 207 254 276 277 247 226 168 154 135 130 104 120 107 103 105 108 115 122 112 114 126 114 106 140 157 154 171 119 129 174 162 142 131
39 54 23 45 15 10 8 58 7 4 14 -7 32 49 60 95 145 214 242 309 191 242 207 165 137 98 81 87 64 68 68 76 79 74 68 64 87 98 107 106 91 100 111 117 110 115 109 104 92 96 110 113 110 100
57 41 32 45 6 21 34 34 -1 9 14 16 11 17 25 20 25 1 18 131 177 189 142 78 42 3 -9 12 34 45 51 43 29 42 65 92 104 111 102 123 91 83 121 117 93 85 86 86 107 111 104 91 87 95
67 38 32 28 39 2 -2 6 17 14 11 1 -3 -0 13 19 31 39 67 102 122 108 95 87 53 23 11 19 23 43 71 39 40 76 102 110 132 166 115 94 87 94 89 77 77 89 96 99 86 78 71 75 74 83
25 56 50 41 41 29 31 33 33 14 3 -12 -28 -37 -37 -31 -36 -23 -8 27 53 62 69 65 43 33 12 -2 15 41 87 76 31 45 80 74 62 76 97 109 117 107 82 88 92 95 90 76 69 69 71 74 92 98
10 20 -11 -9 -3 -1 -4 -12 -6 -0 -6 -9 -12 -19 -29 -38 -34 -38 -50 -11 8 32 53 58 44 31 41 48 41 58 81 86 36 79 134 140 109 86 82 81 81 98 97 85 81 85 83 72 74 84 100 95 93 98
21 26 13 22 -3 -12 -8 9 6 -7 -13 -11 -10 -2 -0 10 -1 -38 -25 3 11 35 43 44 48 53 61 72 76 78 86 100 102 99 124 145 152 151 117 98 102 97 77 65 55 54 68 73 80 90 97 87 79 81
-20 -25 -10 11 8 18 -13 -6 -1 -0 -9 -11 -7 17 19 27 27 23 41 46 38 38 43 45 52 59 73 81 74 73 86 90 85 73 90 138 152 152 146 136 116 107 94 82 73 66 64 66 71 80 92 102 109 98
12 -1 20 52 47 60 77 49 23 4 -10 -5 4 11 19 40 49 62 62 57 33 48 61 65 65 44 52 64 78 88 92 91 79 103 128 134 122 139 118 98 93 93 90 102 110 94 91 90 94 97 100 104 101 91
62 37 57 91 89 70 64 8 3 -13 -17 -12 -15 28 75 64 70 48 54 64 73 76 68 61 58 62 69 71 81 102 100 101 91 97 95 102 95 80 82 89 90 87 81 86 96 108 110 106 107 105 101 92 86 88
32 52 59 51 12 -21 -28 -44 -24 -21 -23 -17 -8 23 10 -3 29 58 66 54 43 37 45 59 67 68 61 67 70 72 84 96 97 95 76 64 63 68 72 74 74 72 69 68 68 78 79 80 79 78 77 81 85 80
27 1 -43 -64 -101 -129 -121 -93 -80 -73 -66 -53 -31 -30 -19 -5 19 17 36 37 44 56 60 51 55 67 57 50 52 57 57 53 56 64 69 58 58 59 59 59 59 59 62 67 77 75 73 74 71 71 72 71 71 72
47 14 -34 -68 -101 -108 -102 -80 -72 -57 -50 -40 -21 -19 -10 -2 9 4 11 26 29 31 33 34 33 35 42 48 48 44 41 40 50 57 60 61 59 50 43 48 52 56 58 60 64 66 68 71 70 69 68 67 65 62

GFSWCAN_con_3kmhel_099.txt.gz
Helicity
-9 -9 -24 -33 -30 -22 -29 -25 -21 -20 -14 -17 -14 -6 0 -34 -42 -58 -36 76 60 18 0 9 22 34 31 -26 8 7 19 14 -21 -36 -36 -25 -15 -8 31 52 31 62 33 41 31 37 32 37 48 44 131 74 98 141
-7 -21 -22 -6 8 18 22 25 15 2 -15 -28 -26 -16 -17 -20 -13 -8 -28 7 -1 7 12 21 8 1 13 6 -19 -38 -29 36 -11 -5 -4 -5 4 7 31 51 -12 27 17 18 15 17 42 32 33 1 42 75 190 186
-11 9 27 29 36 36 34 30 30 21 15 0 -15 -32 -28 -24 -17 -8 5 -3 12 -23 -53 -19 45 26 -9 -6 -28 -38 -14 29 -17 -57 -49 -23 -14 2 21 44 71 64 27 29 34 9 -3 -20 29 -26 30 148 300 168
45 44 40 51 55 38 23 10 0 4 10 3 -1 -6 -29 -33 -11 -13 -22 -4 17 39 23 46 -20 47 81 32 37 5 64 46 37 -2 -42 -49 -34 -7 24 31 46 48 36 33 12 8 8 -19 -83 -77 24 135 95 31
69 68 68 45 39 37 63 67 63 22 -8 -13 -3 -10 -4 -1 -3 -18 -3 30 65 92 -2 41 38 115 3 27 54 69 24 13 -15 -28 -34 -13 -34 -20 -10 4 21 53 30 19 21 -1 -26 12 11 7 -3 24 23 8
75 73 87 105 128 101 59 34 39 64 51 -2 -8 -2 5 12 -1 23 42 69 72 155 61 -30 -5 -13 1 12 31 55 51 -10 -29 21 5 -46 -10 -11 -23 9 27 6 17 26 8 14 -4 -2 -5 4 19 26 28 4
77 62 67 65 7 -7 -15 -16 -15 18 33 10 -8 -6 -19 -16 77 129 92 72 169 213 123 24 -8 24 6 0 30 9 44 14 35 81 59 -21 -12 2 -25 1 13 23 33 37 28 7 16 3 -8 0 10 26 10 51
68 56 3 5 13 20 23 30 24 27 25 2 7 -5 -14 51 89 92 143 68 175 224 125 82 24 20 52 47 37 38 50 50 52 83 76 45 14 5 -43 -29 -5 11 29 36 26 6 2 9 -8 -8 23 43 34 56
7 17 12 22 23 20 19 25 26 26 -22 2 20 13 87 154 150 97 98 92 142 134 93 68 50 40 48 24 61 56 67 82 65 92 102 75 71 77 39 -21 -17 2 16 54 48 44 63 26 16 41 39 19 50 50
-6 10 16 24 38 21 31 35 26 31 45 46 160 159 161 206 118 203 175 131 83 73 113 83 62 58 58 72 54 40 49 65 61 51 51 103 54 26 -1 -4 3 13 13 27 31 36 61 87 84 50 32 55 71 65
16 11 9 33 55 46 42 39 35 98 161 335 255 205 184 244 265 182 159 134 97 65 44 49 20 37 60 63 42 32 51 44 48 41 61 30 15 79 30 28 66 128 113 74 63 33 25 49 60 15 57 107 136 97
72 71 111 13 13 11 34 61 126 183 153 181 241 340 393 207 135 109 121 100 44 42 33 45 30 53 68 55 47 53 46 34 31 64 66 40 123 138 154 172 194 144 118 61 9 33 60 57 73 112 127 166 190 172
-15 115 84 223 162 80 97 195 167 61 39 183 362 299 173 157 79 59 53 73 57 34 52 60 76 124 103 80 39 51 42 17 37 15 24 89 111 140 141 119 85 57 61 42 13 36 78 90 154 178 232 213 168 166
-35 99 150 120 155 119 116 133 292 231 290 418 285 190 156 117 129 141 72 51 88 79 53 34 60 60 90 88 64 52 49 62 58 54 47 112 126 121 111 81 62 44 19 60 63 72 87 99 143 176 200 206 208 198
-6 58 48 137 127 122 109 153 211 198 327 235 239 204 117 107 137 96 148 147 157 123 55 61 54 55 89 86 77 53 35 32 8 39 63 73 73 55 40 44 33 22 21 30 43 48 66 95 139 189 226 258 312 367
49 29 101 104 68 94 114 140 194 129 122 169 153 100 94 80 120 128 154 118 133 107 76 55 68 42 26 115 29 25 35 28 80 55 49 47 41 31 26 28 24 20 21 27 52 74 93 133 196 255 302 325 360 398
41 36 26 24 0 7 35 50 103 95 80 104 109 156 130 151 157 137 146 127 136 96 68 79 66 66 46 9 12 88 99 93 81 70 54 71 60 27 -6 -32 -16 11 27 40 52 64 87 106 158 230 310 359 409 491
30 35 69 15 -42 14 56 39 44 46 37 107 99 136 121 133 112 116 124 139 159 144 167 129 127 68 71 47 55 81 76 82 69 72 75 68 64 68 70 44 36 44 64 72 58 60 83 106 139 186 235 262 358 421
38 38 71 55 16 -2 12 32 65 23 68 93 119 118 115 114 129 135 145 146 120 162 126 132 107 109 141 177 169 174 131 115 99 89 71 70 85 72 66 83 71 63 65 60 59 88 109 124 138 166 190 219 308 300
58 108 81 64 18 5 8 20 39 29 31 32 52 79 69 82 95 113 156 180 204 170 153 128 144 160 164 186 197 189 166 132 101 78 69 69 68 81 109 106 106 101 117 139 154 144 152 163 169 143 133 133 146 184
42 55 52 37 50 12 -2 8 8 6 3 22 25 43 41 79 107 118 146 177 170 187 210 240 264 238 230 199 175 163 150 150 152 142 149 110 84 81 99 119 125 116 115 120 132 141 126 106 109 103 114 138 123 141
28 60 20 30 5 3 6 65 17 -2 18 7 44 66 65 85 117 154 161 230 199 272 257 241 206 178 149 146 116 86 41 50 90 82 74 56 54 59 71 87 105 122 120 112 108 120 122 104 102 114 127 116 117 130
51 29 28 36 3 19 41 60 22 19 15 24 22 32 38 23 86 95 29 158 176 186 147 107 71 -10 2 18 35 47 59 42 -28 -12 20 20 39 53 80 105 95 96 121 126 91 73 89 86 86 79 99 115 110 108
66 27 25 17 37 -3 9 4 41 30 31 30 26 15 25 25 9 32 52 75 90 87 88 95 59 32 12 22 24 30 63 38 22 35 43 41 62 96 101 105 105 104 88 56 46 54 67 83 83 91 79 76 69 75
23 51 41 36 45 -10 8 19 41 19 13 13 5 0 -7 1 -3 3 10 23 41 42 59 76 45 24 13 -3 -11 -7 30 16 22 41 85 69 68 84 112 116 117 103 62 56 70 86 103 106 96 82 72 64 86 89
27 40 14 9 19 30 34 -5 5 12 5 1 -1 -7 -13 -13 -13 -16 -21 -3 11 29 43 52 53 29 20 19 3 9 20 22 -7 32 96 146 99 68 75 86 97 119 122 105 103 111 120 116 105 94 96 86 83 88
1 -3 11 46 23 13 3 20 16 -1 -4 -2 2 8 2 4 -3 -5 6 23 25 38 46 47 52 54 58 62 60 62 63 68 59 45 69 96 120 145 120 101 107 102 106 105 96 90 86 78 76 85 88 77 66 67
18 14 12 43 41 52 17 18 15 14 10 7 9 28 27 37 45 43 56 61 63 54 49 48 53 59 71 77 74 77 85 77 68 43 48 98 131 130 127 125 124 132 122 112 96 85 79 77 77 74 85 91 95 89
38 35 52 101 80 80 88 54 36 24 3 9 13 24 32 44 66 81 82 73 45 66 82 83 79 46 48 55 69 87 101 135 94 103 117 127 127 131 108 92 89 84 83 94 107 96 89 82 84 85 83 88 83 77
69 71 81 137 117 69 59 23 42 30 36 23 16 52 76 74 72 48 71 77 88 91 82 75 71 72 79 73 77 88 90 103 124 123 102 109 103 77 82 82 83 82 72 76 82 92 96 94 92 89 79 75 76 79
69 91 106 81 48 20 18 8 12 23 33 36 23 40 33 14 31 42 59 51 50 54 60 69 75 77 75 83 83 71 80 83 93 99 81 68 67 69 70 71 67 62 61 61 60 60 64 69 76 77 76 84 91 80
69 45 -16 -21 -51 -65 -58 -56 -34 -22 -28 -11 -3 -9 -8 1 18 12 17 33 42 54 64 61 62 69 62 55 49 50 61 52 57 64 73 59 56 57 54 53 54 55 57 61 62 68 68 70 70 74 74 76 78 82
64 46 18 -17 -50 -63 -71 -69 -56 -43 -40 -27 -14 -8 4 9 19 13 15 25 36 39 41 42 40 39 43 47 45 36 41 42 52 58 58 61 62 53 40 44 46 47 48 56 59 62 66 69 71 75 79 79 72 70

GFSWCAN_con_3kmhel_102.txt.gz
Helicity
39 34 35 36 20 1 -6 -12 -7 -31 -32 -46 -27 -17 -8 -11 -26 -31 16 32 -1 24 -8 30 29 -35 27 23 -3 -21 -8 -40 -44 -18 -26 -37 -19 -32 -6 17 -16 -6 14 19 18 23 35 43 67 59 65 64 24 55
37 31 27 32 14 -7 -13 4 -0 -17 -21 -19 -18 -22 -17 -16 -19 -29 -27 14 78 48 2 53 6 -20 17 20 -14 -96 -100 -64 2 -13 -8 -9 -32 -9 16 27 -16 36 5 44 35 20 38 73 45 21 16 -14 74 54
37 33 20 9 -23 -2 -0 3 9 14 19 16 10 -8 -24 -24 -16 -11 -36 -49 62 20 -47 -22 16 54 -7 -12 -23 -35 -24 -1 -29 -35 -28 -58 -32 -16 12 37 22 33 23 14 -33 22 -10 -16 8 24 13 25 111 127
29 25 -11 6 21 23 15 16 19 19 14 6 8 -5 -21 -33 -27 -1 -41 -10 31 45 -3 26 11 45 37 2 -18 -37 17 -14 -26 -40 -70 -52 -64 -8 -15 1 68 107 58 68 44 64 60 56 64 24 -46 6 128 131
8 -3 21 34 38 39 18 16 28 41 -0 2 -1 6 -5 -32 -26 -49 -36 -9 2 24 25 31 33 51 24 -21 7 19 2 -20 -42 -57 -70 -44 -50 -23 -17 14 78 71 81 57 14 -6 -10 -1 -4 -28 -70 -20 40 17
23 41 47 57 55 41 34 36 19 16 67 13 -9 3 -2 -2 -11 32 -13 -29 -20 17 -28 -8 28 28 10 49 38 25 9 27 -46 -74 -82 -85 -39 -25 -40 -0 30 36 78 81 28 20 13 11 -0 -9 5 46 26 42
87 69 40 39 32 41 59 57 41 35 46 82 -6 -18 -6 -6 24 89 26 16 11 147 42 -11 -4 -30 52 39 67 26 -16 -32 -43 -35 -70 -46 -15 -24 -40 -34 51 44 54 72 47 23 6 23 5 -4 2 78 68 56
32 23 22 51 42 9 4 23 10 25 30 68 21 -16 -13 13 53 100 99 19 101 278 115 72 4 8 6 43 42 28 20 13 20 67 74 13 -20 -34 -33 -36 -19 -1 11 42 36 41 22 10 43 5 54 68 49 73
37 18 17 25 12 17 21 26 37 41 52 40 40 3 69 97 92 75 58 76 125 118 114 54 40 22 26 7 14 33 36 55 53 53 68 53 19 9 -36 -50 -23 -10 -2 20 25 34 60 79 99 62 54 43 134 142
-0 2 3 6 43 37 21 30 43 42 65 69 143 122 119 112 103 179 118 77 76 80 91 34 36 28 18 24 33 38 37 43 45 31 42 71 47 54 -17 -5 5 9 39 83 42 47 64 79 85 68 88 94 122 157
56 44 10 -3 27 50 39 45 44 48 98 222 183 204 163 221 149 93 99 106 87 86 55 38 28 46 62 53 62 52 44 43 32 9 45 32 27 120 147 162 150 181 191 184 158 116 86 44 40 61 76 152 170 146
64 53 52 2 33 72 39 52 87 168 159 170 213 264 283 126 121 107 111 115 65 68 48 53 56 58 84 78 66 50 56 58 32 53 60 62 74 74 61 84 95 81 118 106 86 75 56 72 113 129 241 311 207 172
33 94 69 14 20 44 38 31 167 108 101 244 347 241 132 134 100 98 67 102 58 45 74 49 100 116 86 56 55 47 47 39 53 49 47 99 82 78 88 92 101 86 93 101 76 69 67 87 145 155 205 158 150 196
36 95 130 132 48 28 33 152 131 251 378 346 314 208 121 99 94 112 81 75 137 51 21 45 86 53 86 83 69 58 59 60 56 56 99 118 115 94 80 83 81 70 68 73 77 71 60 79 119 174 176 165 179 203
60 93 141 306 294 235 225 261 302 364 410 295 250 195 116 103 94 106 141 160 193 137 73 78 72 78 87 97 64 69 71 50 78 135 119 76 39 54 59 57 54 42 37 47 44 53 65 81 119 168 179 180 212 246
33 24 110 74 184 240 96 93 253 278 228 177 167 144 84 83 109 166 121 139 172 162 139 83 70 54 51 78 53 63 58 109 96 83 60 54 53 40 41 41 51 48 55 62 55 58 78 106 108 143 184 208 231 271
107 128 44 34 41 120 167 143 187 179 194 156 156 192 107 176 170 156 128 128 137 107 91 79 38 52 70 59 120 166 142 130 101 84 82 67 37 41 54 67 42 54 49 57 68 80 91 92 95 143 191 226 280 326
5 -6 -26 -21 49 91 165 135 101 73 90 156 125 114 129 198 135 150 147 165 169 146 135 122 107 136 149 130 103 127 109 105 81 68 60 44 45 57 75 90 82 76 68 51 57 86 86 77 87 112 165 214 288 329
11 -20 -9 -14 -25 38 48 66 76 56 85 108 111 121 129 132 153 148 173 191 175 200 172 158 139 128 145 169 167 173 152 112 79 48 34 40 61 59 49 62 59 62 63 48 45 88 105 95 80 98 126 167 249 271
68 58 31 -1 35 45 43 77 90 64 78 78 111 137 141 129 112 127 159 189 197 164 150 142 145 154 153 163 174 176 158 133 110 92 66 58 43 73 103 105 95 123 152 151 143 110 124 133 133 141 155 178 188 190
15 55 48 26 63 30 10 24 29 32 49 42 24 34 38 87 124 131 149 178 184 186 182 200 200 180 165 161 162 175 162 157 161 171 194 156 87 79 95 114 113 114 117 133 146 140 144 145 139 132 137 138 110 119
30 67 14 18 -9 -6 -8 52 -2 11 38 21 33 40 18 52 88 146 152 218 204 233 223 217 211 192 171 172 151 148 146 150 150 138 132 112 105 74 60 61 72 103 113 125 120 127 107 88 99 107 102 91 87 81
39 17 19 23 -5 -2 -4 35 32 9 7 19 19 20 28 20 106 103 138 197 207 228 221 195 176 96 110 81 79 92 107 90 102 89 82 67 57 63 54 46 53 82 100 98 87 79 74 70 59 58 56 65 70 73
60 17 16 9 26 -28 36 44 49 42 41 41 31 16 20 5 49 109 143 94 108 107 120 136 89 68 27 52 50 55 80 37 42 66 51 26 34 35 52 78 88 79 60 55 53 55 58 51 44 44 52 76 92 96
17 42 32 24 24 15 31 32 46 24 38 20 18 17 15 4 10 17 17 24 30 42 63 88 41 40 52 28 22 17 41 6 24 58 65 15 17 35 71 97 101 72 50 49 46 41 47 53 60 70 78 80 93 107
21 39 32 34 34 22 30 6 10 11 -1 2 1 -7 -3 -8 -7 -3 -8 10 8 31 48 64 70 40 40 48 37 29 24 27 2 25 59 116 56 20 35 51 69 94 96 78 77 89 105 113 115 122 132 115 99 92
1 -3 5 42 22 3 2 24 25 14 9 10 8 14 8 14 18 19 25 39 37 48 53 59 68 70 70 70 66 66 59 57 50 39 38 58 85 122 94 84 97 93 95 100 104 108 111 112 105 96 91 79 79 74
18 16 13 29 49 43 18 23 21 23 15 12 14 36 36 48 45 57 69 71 66 54 54 57 59 63 73 79 83 93 86 63 33 13 29 66 75 66 71 86 108 133 139 120 96 85 79 77 77 79 92 97 93 69
45 32 45 93 67 71 83 51 32 18 11 18 23 35 39 65 84 76 77 72 62 82 98 102 102 49 47 58 81 104 127 191 107 100 105 102 104 111 85 63 58 67 81 97 115 110 106 99 101 97 84 72 71 63
75 53 84 138 117 77 65 23 44 47 49 40 27 51 76 64 66 47 57 70 78 77 77 82 83 95 113 85 82 94 105 131 176 129 101 103 100 80 79 81 87 71 63 74 83 101 100 94 90 82 76 81 88 87
92 111 136 85 42 11 20 20 34 41 42 41 17 21 13 5 29 39 70 47 52 58 56 65 76 83 83 92 99 80 81 81 105 120 88 69 68 70 71 77 72 62 58 55 51 55 52 59 71 68 64 82 92 63
100 65 5 13 -27 -42 -52 -30 -15 -4 -11 -7 -4 -5 -19 1 15 12 22 42 38 52 63 59 59 68 64 58 49 52 65 55 55 59 86 73 62 58 51 51 52 53 57 60 61 69 71 64 60 68 65 62 59 77
96 60 53 32 -9 -29 -64 -60 -35 -33 -26 -21 -20 -13 3 21 32 22 21 34 49 46 44 42 39 35 36 41 42 29 34 34 41 52 56 59 59 67 59 59 48 45 48 56 59 58 61 65 70 76 90 89 70 67

GFSWCAN_con_3kmhel_105.txt.gz
Helicity
30 15 18 40 33 23 23 17 11 7 -4 -9 -20 -33 -39 -27 -30 -52 -26 -44 -11 -36 -25 -11 -11 7 18 -19 -19 2 -25 -19 -7 6 -26 -18 -7 -13 14 48 28 158 61 -36 28 17 -22 24 33 17 -2 9 -21 -7
19 10 16 18 11 20 17 17 11 16 17 -2 -40 -47 -36 -12 -10 -45 -42 -21 -16 -23 17 10 -6 -13 -27 -37 -65 -67 -66 -30 11 15 10 -18 -28 -58 -5 12 3 -8 -19 -16 -52 -29 10 17 49 40 7 -31 -30 34
17 9 12 14 12 12 3 16 22 15 8 -9 -10 -6 -5 -13 -19 -49 13 28 65 2 -57 -22 -9 -4 -22 -14 -69 -52 -59 -65 -63 -131 -91 13 32 -36 -51 40 -42 12 85 -53 -69 4 23 8 64 29 -11 -37 -58 46
8 7 6 16 14 20 21 18 13 13 6 -4 -5 5 10 -8 -17 -24 7 22 -1 51 -31 -45 -55 -17 7 -36 -48 -46 -3 -43 -59 -67 -49 -19 -4 -38 -3 24 26 106 97 -4 1 10 -18 -22 -6 11 -19 -49 -43 18
13 -2 -8 -4 -1 3 38 44 34 26 -3 -6 -4 7 11 -2 -20 20 51 36 -18 56 5 29 20 28 -37 -39 -41 -48 -64 -69 -60 -58 -75 -52 -45 -46 -7 -12 -6 -23 12 22 12 1 43 92 90 39 -13 28 89 76
7 6 11 1 22 44 61 55 44 29 16 11 16 2 -3 -4 16 69 13 -78 -17 28 -23 -12 7 26 105 47 18 -14 -3 -49 -68 -78 -85 -88 -64 -24 -43 -31 -7 7 -1 56 23 -5 159 25 8 22 103 117 112 102
21 29 36 66 85 74 64 48 46 45 31 11 27 -9 -19 8 25 17 41 30 -31 179 -8 -2 28 -3 49 53 -6 -41 -51 -61 -66 -63 -63 -58 -40 -48 -79 -22 137 111 75 55 98 102 38 22 -27 53 124 129 103 38
44 74 78 86 56 38 21 18 21 38 41 57 39 0 -17 12 73 35 74 44 51 130 30 -4 -5 -20 -13 28 17 19 -7 -34 -47 -41 -54 -29 -51 -75 -42 23 16 26 37 24 47 -13 38 86 78 8 53 91 52 26
72 59 42 10 20 3 -1 -16 5 9 17 37 79 7 41 100 108 64 48 27 151 101 -6 17 59 39 30 25 -1 3 17 -27 19 4 -3 -19 -13 -7 -9 -12 28 50 31 35 56 71 49 61 64 64 61 57 69 40
86 54 -2 -2 11 12 8 16 11 14 33 134 118 145 138 93 59 138 117 28 24 59 38 23 38 66 39 6 8 52 29 30 -8 25 39 63 36 107 118 84 70 92 102 95 67 77 74 77 51 28 -11 -2 68 86
12 5 -2 -5 -2 31 52 46 34 115 266 309 244 196 146 84 137 74 86 92 51 37 30 61 53 78 49 59 25 31 43 42 13 6 56 21 53 82 76 61 0 46 108 118 127 132 112 58 24 16 36 151 160 146
27 22 7 2 31 60 38 53 161 260 236 205 210 198 242 137 100 86 92 98 64 47 26 47 56 62 82 74 69 49 49 61 19 45 44 48 84 60 23 29 23 -12 42 87 93 98 97 94 67 48 102 142 144 118
74 93 49 41 33 60 53 116 140 180 180 247 244 198 117 119 102 112 92 129 91 22 53 92 117 135 120 87 66 65 52 25 55 50 64 89 63 59 52 47 71 39 52 75 67 67 78 80 103 79 75 101 98 102
90 137 20 37 50 91 111 194 115 143 351 281 237 164 114 109 106 111 78 103 133 73 80 132 93 62 89 95 75 53 62 82 60 66 90 92 75 47 52 56 50 51 38 35 52 47 55 71 104 127 103 73 93 142
210 196 30 90 128 113 115 255 211 284 361 206 220 170 132 126 128 128 125 168 210 168 115 95 81 84 87 81 60 87 77 69 111 121 97 58 36 18 30 48 42 35 14 31 36 45 54 67 97 124 125 132 151 185
176 290 230 213 295 319 266 211 324 402 283 211 169 126 120 135 142 157 133 131 175 167 178 128 67 58 70 78 80 77 118 164 132 101 67 43 37 38 40 30 19 22 33 34 35 59 62 80 96 118 164 184 195 210
57 123 177 141 170 206 254 299 253 199 185 170 165 236 160 176 172 157 153 146 149 134 133 109 74 62 56 60 128 131 107 110 84 60 51 53 48 47 47 41 48 67 63 68 57 66 63 89 129 167 189 222 256 290
88 33 15 61 154 132 266 204 220 150 138 187 138 127 146 183 167 183 186 184 136 144 141 164 149 140 150 155 164 195 192 133 80 47 46 51 58 43 35 30 53 72 78 76 71 78 88 86 137 168 194 207 268 295
-17 -10 -6 15 94 104 120 120 71 93 126 121 78 114 105 103 147 149 183 218 180 207 161 149 143 126 144 166 185 185 166 123 85 56 77 77 63 28 17 56 82 82 72 65 61 105 102 103 99 115 140 160 198 211
99 41 -9 39 124 83 74 78 76 63 83 89 136 157 151 137 105 161 220 231 232 183 175 144 135 131 121 130 147 158 140 130 130 134 105 77 75 85 96 83 83 105 129 145 139 124 110 131 147 161 165 184 202 194
-2 1 -11 32 81 82 75 110 102 84 100 108 76 105 107 140 174 166 167 186 164 162 177 178 158 154 152 156 160 162 150 167 140 151 173 182 107 90 100 124 97 91 100 112 149 154 165 156 133 138 152 158 150 136
32 3 22 21 25 28 31 64 48 69 91 69 51 59 32 56 81 134 134 197 196 221 202 190 190 175 158 157 142 152 165 187 162 163 168 186 213 124 95 85 102 113 88 103 122 137 133 122 122 119 104 75 61 53
32 15 23 20 0 7 15 62 45 32 15 12 25 33 38 36 61 107 163 210 222 237 247 217 182 103 123 101 108 157 163 117 148 119 111 117 141 141 80 56 49 60 65 53 54 44 42 52 73 72 59 60 56 59
36 -3 4 -3 2 15 40 54 54 38 32 27 20 10 22 56 77 131 151 169 157 146 174 176 124 111 62 66 82 96 93 56 84 107 54 57 70 62 42 18 22 41 30 20 19 16 18 29 36 34 34 40 43 60
-16 35 12 7 42 35 34 41 44 37 49 58 44 38 44 35 33 40 42 37 39 59 93 113 23 63 64 36 35 42 76 16 38 74 53 -5 23 44 51 43 32 23 16 10 6 -2 5 7 10 33 54 68 90 104
15 43 23 38 35 29 33 8 2 4 2 0 -5 -9 -8 -6 -1 3 1 1 5 23 44 66 68 38 55 58 50 40 37 19 24 75 82 83 24 4 13 28 44 62 50 44 52 59 76 92 103 117 123 107 106 114
-4 2 30 53 39 6 -12 8 12 5 6 4 -7 5 11 26 26 27 34 45 32 33 37 46 62 73 80 94 66 55 52 59 58 49 42 64 78 90 81 72 77 60 62 82 95 107 116 118 124 125 122 106 82 74
9 9 5 19 24 40 -3 -5 -1 5 -3 -12 4 31 34 36 38 52 62 55 61 28 30 30 32 52 79 92 93 96 60 21 1 27 67 87 67 58 65 74 87 120 108 88 77 75 76 72 72 81 92 91 87 77
14 -12 17 58 43 44 51 29 7 -12 -27 -5 16 27 44 69 59 52 47 40 43 79 99 109 110 21 32 60 94 122 161 132 56 101 111 104 105 128 67 32 58 79 94 104 105 101 106 103 102 91 85 94 86 80
30 -4 43 93 98 67 53 1 10 14 16 31 24 69 97 69 85 63 61 46 33 50 57 69 73 86 95 62 78 114 148 179 208 122 88 94 92 95 99 88 48 42 49 71 88 97 104 109 111 108 102 99 95 107
42 89 132 111 77 -6 -13 12 33 28 5 -8 -30 -18 -36 -34 -7 22 67 24 52 53 43 58 79 81 73 80 77 63 69 82 93 127 122 77 67 71 65 72 73 62 46 29 24 38 28 35 42 45 62 77 61 63
72 49 26 5 -58 -59 -52 -20 -4 -34 -40 -37 -41 -36 -40 -6 0 -8 17 36 32 42 46 53 53 60 48 34 33 42 54 42 56 54 64 57 62 76 75 72 69 59 59 65 75 94 89 67 68 70 61 72 104 92
150 102 63 29 -12 -46 -92 -57 -39 -31 -30 -36 -37 -25 -12 8 17 18 7 26 49 51 48 38 28 25 35 30 22 8 4 -4 23 42 49 50 51 49 50 65 77 83 65 56 63 81 96 97 90 87 89 83 82 99

GFSWCAN_con_3kmhel_108.txt.gz
Helicity
70 64 56 51 35 31 26 20 5 -2 -11 -19 -32 -27 2 -0 -12 34 -22 -16 -54 -56 -26 -26 -15 -26 5 11 -25 -29 3 7 -26 16 4 10 39 -0 -13 21 78 51 224 159 43 36 48 10 37 21 -22 -34 -63 -19
81 69 65 43 30 30 34 23 5 8 -9 -12 -18 -24 -1 -20 -29 -2 -46 -32 -54 -90 -55 -19 11 -2 -21 -21 -37 -40 -44 -105 -17 -14 4 23 12 -8 -13 -6 -50 12 16 59 -42 -35 12 -7 -15 -8 12 -33 -56 -24
63 57 53 36 27 16 9 2 -0 -13 2 -9 -12 2 -35 -40 -53 -47 -46 -18 -50 -98 -88 -49 -5 56 -18 3 -31 -39 -28 -72 -81 -67 -49 -23 6 -24 -20 3 83 173 48 15 -30 -18 18 25 30 -24 -4 -20 -45 -51
63 56 42 29 24 22 12 9 1 -14 -13 -9 -7 -4 -22 -34 -10 -42 -20 9 -12 13 -50 -45 -26 -4 -35 -28 -34 -15 6 -35 -84 -66 -53 -22 -6 -30 8 53 88 71 87 22 -45 -49 25 91 28 158 78 16 -2 55
70 50 34 24 19 9 2 2 -8 1 -6 -8 4 -6 -20 -11 6 47 36 -18 13 -30 -9 15 10 77 44 -20 -17 -25 -36 -52 -63 -55 -43 -2 -25 -52 -17 -12 10 -41 -23 58 67 113 182 257 119 124 25 -5 47 45
48 35 40 37 20 15 14 -4 -24 -18 15 34 20 -3 -30 -27 9 85 -7 -47 -5 21 -12 -31 18 7 13 -34 -20 -35 -26 -34 -43 -47 -37 -22 -38 -56 -58 -4 -14 23 31 15 59 66 104 86 -3 15 98 94 85 69
48 37 29 26 19 25 29 -5 19 57 46 37 14 -1 -19 -24 57 160 74 49 65 168 13 19 21 36 21 -6 -10 -15 -24 -29 -32 -31 -41 -47 -34 -4 -33 33 17 12 48 97 33 -13 34 68 13 54 112 88 53 36
36 36 26 34 38 38 75 98 93 68 41 31 14 9 -5 -20 98 82 92 43 93 120 20 22 53 11 -28 6 7 -13 -26 -5 -16 -7 -19 -17 -26 -35 -12 -3 28 77 69 55 38 34 29 71 26 16 27 16 22 9
30 32 42 48 61 98 72 95 63 32 29 36 27 -1 32 36 128 79 77 59 94 55 5 57 74 20 -23 22 41 3 -15 -11 -12 2 -0 -19 -13 -6 50 31 34 51 45 51 40 88 90 77 66 16 -7 33 42 29
41 35 35 32 52 64 47 19 10 8 33 14 158 175 145 93 62 156 115 30 5 5 24 31 45 39 9 41 18 -3 -18 -12 -15 -6 44 -9 10 117 67 43 54 32 23 25 8 29 55 51 38 12 20 56 65 40
46 60 58 105 102 16 -33 -1 12 47 300 352 294 270 129 72 124 99 44 14 8 5 -0 102 139 71 -2 25 42 -1 -11 -20 -17 -8 9 -6 50 85 57 19 -10 -31 -19 24 48 46 45 42 40 40 45 63 67 60
160 144 79 39 38 27 24 27 108 329 260 263 258 222 143 105 107 64 22 25 -12 19 1 46 59 32 57 61 40 31 9 38 1 40 25 24 73 83 49 18 -13 -7 -9 30 43 48 53 58 50 19 24 50 62 64
19 25 11 26 23 12 59 132 124 228 205 344 346 260 157 128 102 81 48 68 53 11 45 54 51 58 76 68 52 40 56 37 58 63 44 61 61 32 29 6 28 36 29 31 34 30 24 34 56 57 43 65 94 96
42 17 4 9 23 70 150 149 136 211 434 365 294 183 128 132 105 64 54 43 76 59 71 79 113 74 85 89 66 55 45 68 65 58 48 53 50 36 13 27 12 19 41 24 12 26 41 56 61 62 75 73 88 118
24 19 16 32 41 89 126 131 279 367 339 229 190 128 102 139 120 97 87 110 156 118 129 125 100 77 72 74 66 92 76 63 84 72 82 49 23 17 14 19 12 17 6 -1 -4 5 42 60 78 92 97 107 120 140
110 75 98 71 52 112 231 276 383 323 215 155 170 150 115 148 122 117 115 120 202 204 159 128 64 58 55 68 73 83 95 122 82 85 69 45 31 21 23 27 29 23 4 -20 7 35 69 80 94 98 143 167 180 179
244 305 297 304 340 318 193 249 290 172 77 193 157 195 159 151 149 128 134 140 142 136 131 93 65 61 70 76 131 152 144 120 111 79 57 47 46 32 36 39 43 32 17 17 43 75 68 82 113 138 161 190 244 260
147 175 199 165 207 287 226 208 186 109 105 179 126 145 125 167 162 167 179 196 162 161 149 120 125 153 159 154 147 176 205 185 128 80 55 40 30 19 27 45 63 39 30 48 46 40 68 86 114 138 162 183 223 235
29 66 104 125 91 108 109 231 156 61 131 171 156 145 135 115 167 159 181 211 192 203 165 148 140 142 166 162 152 147 152 127 98 86 78 67 68 49 56 79 79 87 70 64 45 69 80 88 107 127 154 158 181 179
-9 99 118 113 138 76 100 103 85 59 91 104 112 108 101 103 98 137 193 213 187 166 176 163 160 155 123 120 120 114 117 124 126 122 102 106 100 97 66 54 49 59 89 105 113 108 113 130 128 130 138 145 165 160
99 1 110 189 189 141 85 97 78 60 101 114 96 108 104 140 155 167 165 180 156 153 146 158 144 123 113 113 121 129 134 140 127 136 147 153 129 127 129 113 94 108 113 115 129 154 150 144 123 124 137 146 152 145
42 65 119 151 188 190 100 125 75 94 109 102 108 113 106 111 130 161 169 183 169 201 192 192 172 149 133 141 157 162 151 160 152 143 159 171 186 152 114 93 108 112 100 98 97 107 112 87 82 76 80 67 72 70
23 39 55 54 66 79 78 121 108 121 57 60 94 68 61 58 81 103 111 163 199 215 226 188 170 151 150 135 152 185 157 128 135 112 101 99 105 90 71 63 58 67 59 41 34 49 46 32 44 47 46 37 42 45
34 15 21 20 30 31 65 57 66 62 54 59 50 31 42 54 103 125 158 183 185 184 209 192 196 119 107 112 116 94 67 40 64 80 55 50 64 56 25 17 19 17 11 5 9 11 11 19 30 29 32 45 51 57
-4 30 17 47 56 40 42 59 56 42 43 59 53 40 42 77 69 80 88 92 88 90 108 66 69 79 50 44 51 58 55 29 31 31 29 2 19 29 29 3 -3 7 5 1 2 4 4 8 11 20 35 55 72 84
7 45 9 30 56 29 45 40 30 35 39 18 10 21 16 11 12 16 23 21 15 27 39 51 36 40 67 70 61 53 44 23 21 55 39 31 23 34 37 41 35 24 13 15 15 14 14 21 43 61 72 84 100 118
41 56 63 67 62 49 9 52 44 3 -0 -4 -7 6 11 32 31 31 46 52 36 27 34 41 55 63 67 78 76 72 69 62 63 50 40 60 69 65 59 55 50 34 37 51 64 78 85 83 84 84 85 87 88 91
14 15 -11 83 14 31 -11 -14 -13 -12 -19 -22 5 28 36 38 42 47 51 60 66 55 47 54 57 60 75 77 74 72 51 32 46 61 74 95 86 73 73 77 83 91 63 57 61 70 72 72 78 81 80 80 85 87
6 -18 -0 46 22 11 12 3 -5 -19 -28 4 32 34 46 60 51 42 37 41 55 81 103 99 56 30 61 79 89 99 102 56 63 92 108 109 110 113 67 65 67 71 77 70 61 54 59 67 73 74 79 77 77 80
-7 -23 -6 46 76 68 61 21 6 -8 5 36 26 67 105 71 68 48 46 37 50 59 60 76 71 67 60 68 81 118 154 143 116 82 75 76 69 66 75 48 42 50 58 71 83 93 104 104 105 107 105 106 103 100
25 75 150 157 132 44 17 15 50 48 17 18 -9 15 -17 -32 -16 10 30 8 30 40 54 68 82 66 55 55 49 49 63 76 78 78 67 57 58 70 73 68 47 30 28 35 46 54 58 70 83 77 71 76 77 82
46 84 87 90 -5 -85 -56 31 26 -22 -32 -17 -45 -41 -39 -14 -11 -19 -7 27 45 46 24 40 52 39 20 21 28 35 38 30 47 49 55 51 51 50 48 54 59 54 59 69 70 61 44 48 62 74 76 77 73 76
135 128 96 71 -13 -51 -76 -23 -29 -29 -40 -42 -45 -28 -16 6 10 11 6 13 28 28 35 29 27 35 27 18 15 9 10 11 22 38 43 44 41 42 44 49 54 61 65 68 73 75 87 92 87 85 83 81 79 74

GFSWCAN_con_3kmhel_111.txt.gz
Helicity
88 72 57 67 59 58 60 58 48 47 37 21 4 -32 -19 11 55 90 44 59 51 -36 -54 -30 14 24 -0 7 25 13 19 7 22 6 -13 -3 30 5 20 45 35 -17 25 142 219 64 90 31 49 30 21 -17 -39 -11
80 82 58 62 61 61 53 56 48 43 29 13 10 -16 -35 16 24 57 43 40 53 -22 -49 -33 14 15 -24 -10 -26 -0 2 -7 -16 -38 -19 -3 23 15 -1 -18 52 130 120 43 80 38 12 5 -9 -103 27 48 -4 -12
77 75 71 67 67 65 57 46 52 47 28 18 9 -10 -33 -20 7 58 30 53 44 -0 -54 -57 3 60 22 60 41 14 10 -34 -68 -55 -42 15 44 -5 -6 21 139 160 124 13 14 30 20 22 23 -25 -31 -32 -11 6
84 75 47 66 63 58 54 47 40 37 24 2 8 -1 -19 -15 8 28 24 33 60 31 -66 -59 -6 1 14 -9 -26 10 69 -2 -14 -40 -23 7 12 -32 -23 24 105 8 71 221 6 -30 53 47 125 91 53 -36 7 69
56 53 57 73 71 59 50 51 42 31 6 -1 -21 -16 -19 -27 -15 24 42 12 61 53 12 2 38 93 28 -23 4 18 18 -5 -39 -20 3 -6 -4 -22 -32 -27 -17 -50 -15 140 197 124 204 316 274 92 44 60 65 63
45 54 67 69 65 53 40 43 35 17 8 -0 -9 -17 -22 -39 -25 33 64 -9 36 64 31 -2 8 43 -4 -24 -25 -9 4 -12 -2 -3 -9 -10 -10 -36 -15 24 -11 -20 6 40 44 -13 59 31 28 27 40 48 61 55
30 40 49 60 53 48 45 33 21 13 2 -12 -15 -30 -41 -61 -20 50 69 40 97 112 39 19 16 20 7 -15 -12 -13 -10 -6 6 26 21 21 -10 -8 14 47 17 18 51 62 82 13 -2 43 7 10 15 67 49 23
23 36 49 56 56 50 41 32 26 18 6 -20 -1 -22 -24 -58 -62 86 108 61 120 131 40 19 26 27 -10 19 16 -3 6 39 28 11 20 28 3 16 4 27 28 42 49 67 98 81 62 63 45 21 12 17 32 16
33 40 51 47 45 29 35 41 43 48 53 45 24 -2 29 50 28 135 88 43 75 70 6 11 34 33 -8 30 6 24 -6 5 -6 15 31 1 -3 2 62 46 29 7 8 27 36 32 75 94 108 91 33 10 -1 -11
9 16 20 31 34 35 55 40 66 83 87 29 55 103 128 98 27 222 76 49 39 40 13 6 38 44 -1 18 12 22 8 -10 -6 -8 -4 -4 38 142 82 46 14 12 -0 -1 1 17 33 54 57 55 25 2 8 -20
18 22 26 34 39 35 35 66 38 95 70 149 134 191 163 70 158 117 80 41 61 16 -15 18 99 84 6 21 25 14 27 5 -4 -16 -18 -11 49 89 55 40 25 1 -17 2 19 21 22 21 23 14 -2 -14 8 21
55 38 24 27 33 52 60 61 91 146 147 147 240 221 199 115 115 128 82 52 17 -4 3 29 30 6 20 18 25 9 -6 3 -23 -0 -8 23 54 58 37 29 -0 -12 2 13 19 10 7 10 22 22 3 18 35 43
49 62 60 42 50 98 95 5 98 149 144 350 371 293 202 154 110 103 57 52 23 21 30 31 20 15 28 49 62 48 39 12 26 31 37 61 44 18 1 7 20 17 20 23 27 23 15 14 35 49 20 28 40 55
112 145 150 77 59 26 98 121 145 162 384 332 348 257 164 109 53 27 56 32 52 54 24 60 69 45 53 68 63 56 42 44 26 36 52 44 47 42 13 3 5 18 23 16 33 34 23 21 21 39 59 47 56 72
43 36 43 49 47 62 149 124 137 318 432 325 221 156 140 112 96 91 53 59 104 83 103 113 73 60 78 74 53 85 63 44 54 32 37 35 30 17 7 7 1 4 7 9 -1 2 22 28 33 44 66 74 87 101
33 55 49 50 63 114 65 132 306 274 323 275 207 132 174 128 119 83 100 87 115 127 138 123 58 64 66 65 54 63 70 57 58 64 55 43 29 24 15 27 13 -11 -17 -15 -1 -5 9 25 48 56 101 121 125 140
38 105 23 84 194 250 218 269 228 170 133 183 178 145 138 171 142 112 122 119 156 132 127 94 57 64 61 72 82 91 104 107 92 90 73 52 30 19 3 15 5 -12 -13 -8 4 5 5 30 69 84 112 119 162 182
146 144 275 288 336 314 385 214 113 109 99 165 136 162 115 145 123 133 144 162 139 144 153 111 105 103 103 98 124 135 146 162 135 94 67 52 47 46 39 27 13 6 20 38 40 22 35 63 76 91 124 127 171 188
205 225 217 256 245 189 138 149 86 95 60 114 157 152 126 107 149 146 152 172 154 227 196 147 90 86 132 153 140 139 131 116 83 69 62 64 81 71 65 52 43 36 27 24 38 61 66 85 91 110 125 132 156 156
193 243 247 190 179 100 102 159 105 71 83 110 138 135 113 93 97 140 197 212 185 171 169 142 126 110 91 112 123 109 92 82 71 79 83 96 102 96 75 64 59 56 80 89 82 71 83 98 107 117 128 140 154 155
236 217 245 155 141 55 40 138 75 44 73 105 126 124 98 108 114 121 123 144 113 132 147 159 159 137 118 113 108 101 105 109 113 107 90 97 122 136 132 113 105 96 110 112 107 88 80 86 99 111 128 139 134 131
163 225 266 209 88 78 62 119 84 80 77 90 134 109 99 107 115 133 135 165 166 181 167 149 132 106 123 136 140 143 126 123 129 128 139 131 137 127 109 80 79 89 89 87 78 65 47 50 62 78 92 89 81 83
144 185 227 199 100 62 39 108 89 90 57 82 112 112 103 105 106 122 111 143 186 200 188 148 154 146 147 133 135 144 137 117 118 101 81 79 71 62 56 55 49 60 53 42 31 25 20 17 27 41 42 41 44 47
56 55 70 81 99 84 134 131 135 107 104 90 70 27 43 38 81 82 98 129 148 176 190 203 155 143 135 144 142 116 93 49 50 58 51 46 49 50 26 20 7 3 5 1 -1 3 1 7 20 28 36 41 40 50
21 61 35 41 61 26 40 59 68 54 44 67 59 34 35 74 78 84 87 111 121 127 114 103 106 98 73 64 62 62 52 41 43 43 50 33 40 50 45 14 -0 -3 1 2 -0 5 8 17 29 36 45 55 63 68
-5 52 24 36 63 38 47 41 39 39 73 68 63 70 67 44 34 33 46 42 39 48 46 42 39 47 65 70 68 71 66 37 33 56 54 39 34 38 43 45 38 20 9 17 20 24 26 32 43 52 58 63 73 86
24 36 43 61 62 59 54 67 95 52 26 14 27 30 24 38 36 31 53 64 59 57 56 59 68 68 63 62 69 72 65 72 71 58 48 62 60 51 40 38 38 26 25 38 42 38 48 60 64 70 78 81 79 83
34 43 39 98 40 57 67 44 24 17 10 12 18 35 42 41 41 53 65 71 71 73 73 71 72 69 75 69 59 55 49 62 54 49 62 83 92 88 78 61 52 58 45 48 52 60 65 68 70 66 65 64 62 62
27 31 17 56 35 20 22 8 -6 -15 -8 7 36 40 48 43 30 49 56 58 69 98 85 69 62 48 68 62 78 81 73 66 66 89 100 91 89 95 77 61 69 64 57 54 54 48 51 52 59 64 65 64 62 70
20 7 -22 14 39 45 43 29 14 9 10 20 28 46 91 51 36 11 21 43 58 60 48 51 43 53 55 64 69 91 110 100 88 58 54 59 48 43 46 43 46 53 50 57 65 79 85 79 81 80 87 87 84 86
34 48 108 150 144 89 44 39 65 68 42 49 35 44 7 -20 -15 -7 -3 -9 10 32 57 65 71 54 53 59 50 47 55 60 58 58 47 35 33 38 36 35 29 22 25 36 49 60 64 69 74 71 71 72 73 76
72 96 139 156 72 -2 42 50 39 28 -20 -16 -39 -36 -26 -8 -4 -12 -2 29 53 59 38 44 62 44 19 14 15 22 28 22 34 38 43 40 40 32 31 30 28 37 45 54 46 41 47 55 63 66 64 61 59 65
176 184 185 160 81 16 -27 -0 -2 -15 -32 -37 -40 -28 -18 9 13 12 20 29 50 53 52 39 25 15 16 23 21 17 22 20 16 27 33 30 26 29 33 36 34 42 51 57 67 67 72 73 70 68 67 67 66 69

GFSWCAN_con_3kmhel_114.txt.gz
Helicity
63 54 76 88 99 99 91 78 61 59 40 43 71 61 47 27 40 121 60 67 104 70 10 -5 -27 -15 26 23 13 6 7 -0 8 -2 -5 -8 -6 -1 -7 29 41 54 37 50 82 145 18 23 50 13 -10 5 32 58
56 71 86 105 86 81 61 58 48 53 38 52 73 67 64 41 64 92 72 64 72 81 -1 -2 -16 13 61 68 -18 14 -12 -12 -24 -7 -5 -1 -16 14 37 71 152 149 129 54 42 31 9 17 -5 19 -26 -5 44 37
69 76 79 68 59 58 60 56 52 49 36 56 70 60 57 49 37 49 88 106 92 62 -1 -10 28 68 47 87 117 31 34 4 8 -40 -31 -22 14 13 28 71 99 107 168 53 34 37 19 4 7 4 -89 52 14 3
92 77 89 91 68 68 62 62 52 29 51 56 64 54 42 30 11 27 70 84 97 74 -22 -27 -1 -6 28 80 86 90 45 38 5 -15 -41 -12 9 -7 46 86 104 16 71 232 41 124 36 15 85 67 17 18 81 47
38 63 83 94 78 65 68 62 55 58 40 45 56 45 39 27 10 28 49 56 78 70 6 -27 4 98 43 53 48 26 26 19 7 -8 16 -1 8 -6 1 13 -11 -34 20 129 164 185 177 116 75 82 77 62 33 50
50 55 52 79 61 41 61 48 55 51 48 57 40 16 -2 7 6 46 54 51 109 135 64 -1 30 47 -5 -37 -27 11 67 27 18 -7 19 13 28 -23 -17 9 -3 -48 -10 -24 24 82 -10 -17 23 19 20 96 104 44
41 49 32 33 35 52 64 59 63 53 41 42 31 19 12 9 44 74 57 31 91 150 75 18 15 1 -2 -26 19 33 8 15 19 33 69 59 39 39 17 61 29 14 20 4 37 70 33 38 43 5 -8 -13 16 25
37 43 45 44 38 43 62 60 51 41 29 20 19 15 10 4 3 -21 -34 55 92 83 77 13 19 20 -14 3 27 -0 16 41 51 54 46 43 27 21 12 74 33 8 -23 11 50 27 20 27 76 77 28 9 19 8
47 44 38 40 37 56 58 54 50 31 24 24 22 23 38 45 34 -38 30 63 88 72 36 7 27 40 7 26 31 25 5 12 -10 24 25 15 26 11 68 42 38 7 -3 29 37 15 38 57 64 69 67 46 4 7
43 46 22 29 27 36 52 54 43 30 27 16 45 82 79 76 13 43 83 85 65 73 40 22 24 20 6 4 12 -2 -11 5 -12 -8 -5 2 52 121 68 21 23 28 7 -11 -9 14 28 43 41 44 36 20 15 32
25 31 39 18 13 24 33 34 36 41 21 51 59 94 101 67 130 56 132 80 66 5 -0 78 114 69 -4 1 7 8 59 11 -12 -8 -8 -12 35 81 50 34 10 -11 -13 10 15 17 13 15 17 12 13 12 6 18
6 9 -6 -0 2 16 33 36 47 58 59 78 143 162 150 124 111 117 97 87 40 12 18 59 35 2 5 2 -5 6 18 23 -13 7 -2 7 53 50 29 21 2 4 16 20 20 20 22 17 17 12 15 12 7 25
31 18 18 25 28 30 40 37 32 38 36 199 184 169 150 151 103 116 127 145 90 14 33 44 25 4 7 22 17 1 16 -9 26 20 34 48 42 34 17 17 20 27 32 28 26 29 38 36 29 34 27 25 21 30
55 57 55 53 37 29 23 16 58 42 260 220 266 175 128 23 46 94 102 118 81 28 20 54 46 30 31 51 38 49 48 50 31 35 49 53 51 44 44 32 31 30 30 20 28 26 25 24 25 29 35 34 42 50
41 42 41 43 59 39 36 59 58 264 260 276 249 128 70 76 55 66 76 89 77 66 69 59 59 36 52 59 50 61 42 45 31 34 29 40 39 29 20 26 18 10 15 17 12 4 13 21 27 31 49 52 55 69
106 109 71 86 56 84 91 179 301 309 244 288 210 140 152 152 96 78 77 62 76 88 91 85 57 54 42 59 60 41 40 33 45 60 62 56 45 38 22 14 -9 -18 -7 -17 -21 -21 6 36 38 27 60 85 84 92
64 141 44 6 95 122 209 323 358 200 210 191 168 185 159 179 155 98 96 95 121 112 101 103 72 53 58 51 54 77 67 85 98 89 59 40 30 18 -4 -10 -0 -4 -16 -25 -33 -24 -7 8 45 60 65 77 111 128
91 77 67 304 344 374 341 214 138 133 119 154 162 171 134 147 137 139 112 116 120 112 138 120 107 103 82 49 73 103 122 120 107 86 64 49 41 35 33 30 27 25 23 21 11 1 13 37 46 47 74 86 117 140
146 233 261 186 210 290 168 177 150 111 128 101 133 155 144 131 150 130 123 129 129 184 174 161 95 71 84 100 83 99 112 116 94 92 83 63 66 70 59 63 68 71 64 56 60 64 57 57 51 74 97 113 122 133
267 275 255 217 170 172 110 125 81 81 85 92 131 152 135 110 114 153 175 162 149 146 153 163 156 124 88 73 82 82 88 92 88 82 74 90 93 101 104 110 118 116 112 109 95 75 69 70 64 70 88 112 133 144
345 346 242 196 226 137 47 74 80 69 74 91 110 123 105 115 108 118 128 142 126 146 146 143 134 130 130 130 127 116 113 118 118 106 88 91 111 142 140 127 105 94 87 85 95 97 91 78 57 54 72 96 105 119
235 255 269 186 41 40 74 132 68 78 83 80 136 129 112 110 102 104 100 125 124 126 118 114 113 112 142 148 145 148 129 136 132 115 123 116 116 103 91 73 66 69 75 70 69 69 54 37 34 29 42 57 67 74
193 214 136 99 34 44 18 69 78 102 58 72 100 102 92 88 82 92 91 115 151 178 169 164 171 162 149 137 142 155 152 123 129 121 94 73 53 51 48 49 40 59 59 47 25 28 19 12 15 14 15 23 33 46
167 123 75 49 42 38 51 75 82 83 93 94 75 73 69 79 92 115 109 126 145 164 173 173 142 138 140 156 160 154 135 82 72 63 48 37 44 41 37 45 36 31 26 11 7 12 6 3 3 4 13 22 29 38
34 95 66 74 112 62 73 91 112 111 78 104 87 59 47 80 58 72 82 114 158 165 160 148 139 126 105 94 93 88 70 55 53 58 66 47 39 40 40 37 34 25 8 27 24 22 16 16 20 23 29 35 42 48
-2 55 8 18 51 16 34 40 33 24 39 33 38 53 63 67 64 73 77 88 93 93 83 78 70 78 94 91 85 87 85 59 54 82 84 60 62 55 50 49 47 48 28 27 25 23 24 32 38 41 48 52 59 67
-1 20 30 63 52 45 49 85 101 76 55 37 47 52 38 38 34 36 55 81 88 81 75 71 78 79 74 79 97 97 100 96 90 78 61 77 83 78 68 64 67 51 41 37 35 29 32 40 50 58 63 67 64 64
37 44 32 86 56 70 64 68 44 28 21 25 30 35 41 42 43 55 71 82 80 77 83 84 81 72 78 78 72 66 74 60 44 45 52 76 89 98 101 80 64 64 49 51 52 54 52 48 55 54 56 58 61 62
55 77 56 85 67 56 44 31 23 23 29 14 27 32 42 42 35 34 41 44 58 69 72 71 68 54 74 71 84 78 68 66 66 80 87 81 84 96 91 71 74 72 60 54 54 49 54 52 52 57 55 55 54 61
30 27 -9 9 16 28 59 39 22 11 9 15 23 40 86 61 45 12 13 28 37 48 40 41 38 48 48 56 59 82 91 85 80 51 48 47 38 41 42 46 45 46 45 51 59 70 75 66 66 61 68 67 64 65
61 31 23 69 84 63 27 47 66 67 44 56 69 61 21 -17 -19 -2 12 13 24 33 50 62 73 62 68 68 56 52 58 60 60 56 46 36 35 38 40 34 29 23 24 32 42 44 44 51 53 56 57 58 55 58
75 59 110 151 80 12 86 76 62 51 5 7 -14 -28 -30 -15 -14 -22 -0 33 53 68 51 53 71 58 34 31 31 31 36 30 35 37 37 33 29 24 24 24 24 31 42 47 45 44 45 53 55 56 53 54 56 58
184 197 214 176 124 67 38 62 46 15 -10 -27 -39 -34 -22 4 9 8 18 33 57 59 55 48 41 40 36 39 41 36 33 24 15 21 25 24 21 22 24 30 35 42 51 52 57 55 63 63 59 60 61 58 56 57

GFSWCAN_con_3kmhel_117.txt.gz
Helicity
26 61 68 64 67 54 58 56 36 35 30 51 56 62 53 46 79 105 86 58 118 76 33 28 10 4 -8 -2 19 -6 -2 -7 -20 -2 -1 6 10 15 19 41 115 45 61 34 51 49 22 27 14 16 -4 -86 -22 94
57 58 50 58 71 74 85 61 72 84 83 62 57 60 56 48 69 116 107 51 68 66 22 21 -2 9 34 51 39 -9 -6 9 -11 -12 -22 12 35 -8 48 141 109 114 157 78 40 31 20 -7 19 1 -30 -58 73 65
40 61 75 78 95 98 78 78 62 80 56 57 51 52 64 49 72 97 99 93 95 78 53 41 18 42 48 70 72 16 3 -24 -20 -20 -14 -13 18 30 64 97 136 163 159 166 67 30 25 7 16 8 2 40 -0 24
36 43 57 59 82 78 72 69 64 56 60 53 44 51 65 54 41 67 102 98 105 95 33 8 -17 -3 35 56 68 101 34 39 36 -4 -26 9 30 1 64 97 109 38 121 179 232 86 96 -8 29 53 67 87 64 41
43 60 46 55 74 43 41 30 70 74 64 43 44 48 52 40 33 62 66 68 48 79 9 -41 -60 81 2 78 59 77 75 24 -2 -4 2 22 15 -12 29 10 25 -59 17 53 41 166 21 60 57 81 76 86 70 73
58 61 63 62 40 53 56 64 69 61 54 49 27 44 49 43 67 120 70 49 47 90 32 -8 16 85 43 50 69 98 54 9 6 10 6 17 16 -27 -15 24 44 -4 -17 -50 7 42 -34 -4 4 31 -5 -7 38 103
63 54 54 54 56 63 51 53 68 76 67 46 50 45 28 20 119 84 55 34 45 94 45 15 27 6 9 6 15 34 -2 10 5 26 69 72 25 -15 6 31 34 -7 -1 -32 -28 2 -0 10 -12 39 19 11 10 11
55 55 61 66 58 63 43 28 47 58 44 38 29 34 24 30 70 20 -63 15 37 37 38 15 -3 28 -4 5 12 2 31 40 12 55 72 48 18 -12 11 39 24 13 -10 -17 -3 5 -0 9 33 54 46 24 25 37
55 64 60 70 49 23 25 49 54 24 34 30 34 30 77 95 73 -11 -3 7 47 54 30 17 32 43 24 13 39 23 26 11 -2 20 29 -2 -1 -15 59 40 27 -9 -13 32 34 25 41 50 49 56 54 50 31 29
40 43 50 53 38 42 43 57 34 15 26 17 94 105 94 46 14 19 18 21 39 86 106 50 54 34 10 26 31 23 -5 -18 -5 -11 17 -1 49 139 86 41 5 -3 -1 -6 -13 29 42 36 29 20 17 8 -1 3
47 41 42 36 42 43 35 25 32 21 50 113 103 104 89 40 89 38 63 96 99 53 37 64 91 72 11 17 15 1 7 -2 -8 -5 -7 10 34 64 49 37 22 5 9 9 8 16 24 24 28 22 16 14 12 10
40 42 44 35 21 12 27 45 37 96 112 61 74 124 70 70 94 114 122 126 62 15 6 36 41 22 19 24 -7 -20 -1 5 -5 2 -18 6 37 45 40 27 21 26 34 39 38 29 27 33 34 23 14 10 10 13
28 29 44 40 37 5 18 27 25 57 57 85 62 69 99 93 84 86 122 133 109 44 16 59 55 22 14 7 8 2 3 -8 5 2 16 55 62 53 44 29 31 39 40 34 33 34 36 34 37 39 31 29 25 36
19 29 35 31 21 19 20 28 31 38 -32 41 114 144 91 52 3 76 121 127 105 24 36 50 42 25 13 10 4 -0 17 25 17 24 47 62 56 50 41 48 58 53 39 23 25 33 38 31 22 24 31 36 37 50
19 17 12 12 14 20 37 33 23 69 -4 71 122 58 19 34 21 15 57 107 104 84 61 29 43 30 35 27 23 39 20 14 19 42 33 45 50 44 42 40 39 39 34 27 27 31 19 17 29 44 58 60 62 63
41 33 19 23 30 38 34 44 94 73 1 47 129 54 80 87 75 88 92 85 85 84 107 80 42 33 33 41 47 41 44 28 43 46 57 60 61 48 36 31 15 7 4 5 13 14 10 18 23 28 62 103 98 89
20 -12 19 41 22 18 41 110 91 71 -38 15 78 171 130 137 148 160 122 79 98 96 102 76 46 36 53 40 41 66 58 66 72 75 73 62 55 49 42 30 14 1 -1 -2 -2 8 11 14 25 51 92 103 111 114
-17 12 61 49 22 154 256 155 121 62 -6 102 98 154 146 163 116 111 76 105 102 89 102 94 89 80 64 51 49 57 72 84 89 96 94 82 77 72 65 52 49 40 37 42 41 41 45 51 70 83 93 109 123 135
102 148 127 70 258 257 180 198 198 92 89 160 188 202 181 151 166 142 128 120 100 133 122 120 82 84 89 109 98 85 88 95 87 90 88 89 92 94 95 91 92 88 81 79 84 90 87 82 84 83 86 86 112 126
146 153 204 224 238 228 178 173 163 130 103 94 118 138 132 116 119 154 165 140 128 113 108 99 81 95 101 107 117 118 119 117 101 109 108 124 122 117 122 104 109 120 121 112 96 77 74 81 87 88 88 81 79 90
340 278 250 260 281 182 131 226 127 93 102 110 123 131 118 113 90 99 127 141 107 104 86 103 143 162 158 162 153 139 156 148 121 109 101 99 115 123 127 134 120 102 94 81 72 71 72 67 65 68 60 46 47 47
347 234 256 253 207 147 119 131 69 72 97 105 122 107 93 105 104 104 86 105 98 108 122 130 123 126 140 151 159 160 140 142 128 119 120 112 118 122 113 75 65 70 61 46 41 39 39 33 27 36 33 26 19 24
242 222 191 155 95 80 83 113 93 95 94 90 104 100 81 86 97 106 84 94 115 144 142 156 157 147 140 129 139 159 152 134 140 138 119 105 73 56 49 43 31 40 40 35 18 24 21 6 11 15 15 14 7 8
172 123 107 42 40 42 69 68 76 74 80 92 86 79 79 89 93 106 94 108 130 152 169 164 144 147 145 155 163 162 146 107 111 100 77 61 57 57 41 40 38 37 30 18 11 14 9 11 7 11 10 8 2 4
30 76 47 40 69 34 57 69 72 66 47 66 58 50 44 69 76 85 86 117 157 173 181 169 167 160 140 127 119 114 98 77 83 89 84 64 53 48 54 45 36 27 17 22 16 12 11 15 18 19 17 15 21 25
18 73 37 36 96 45 38 41 52 52 70 71 65 73 60 38 43 66 79 104 131 141 130 108 95 97 114 102 94 95 94 70 74 98 105 85 86 74 72 69 62 59 42 26 22 23 26 28 31 35 40 42 41 43
-19 -0 47 99 84 84 67 81 89 58 34 5 13 48 53 51 45 46 64 76 71 70 67 70 75 80 80 87 99 99 97 95 95 89 75 88 95 90 82 78 78 65 54 40 28 26 29 30 35 40 48 55 53 51
-2 19 15 81 71 85 46 79 60 44 38 41 44 38 28 32 37 54 58 61 60 61 68 72 72 66 73 76 67 62 63 51 45 53 58 76 88 96 103 85 71 72 59 61 54 44 39 40 40 41 44 48 51 51
47 83 69 108 82 58 52 41 34 36 45 29 21 25 37 34 22 15 13 20 28 50 56 59 63 53 68 69 77 71 62 59 60 75 78 68 63 81 91 74 72 74 67 53 54 51 53 46 46 45 50 52 54 53
77 65 34 42 36 41 57 48 38 29 27 17 15 34 64 41 20 -8 -6 3 14 33 33 33 28 31 44 53 63 81 87 81 73 55 50 48 39 35 42 46 41 41 42 38 39 41 53 51 52 45 51 48 46 48
62 31 19 29 48 68 31 47 41 36 25 40 43 34 7 -29 -31 -17 1 9 23 32 43 56 66 59 64 63 60 60 66 60 58 55 44 34 30 30 32 29 30 29 29 39 48 49 50 56 59 59 59 57 54 53
56 26 37 96 62 12 96 89 74 74 26 11 -6 -20 -25 -28 -32 -37 -8 15 34 51 53 63 82 78 62 59 53 48 46 43 43 42 41 37 31 24 22 23 25 28 36 40 40 44 46 56 54 54 53 56 57 57
129 166 218 181 124 67 44 82 78 51 19 -3 -26 -35 -29 -10 -2 -0 4 14 40 62 65 55 58 60 58 57 57 51 41 33 27 28 31 34 30 30 30 34 35 39 47 52 54 52 58 60 58 59 59 56 53 52

GFSWCAN_con_3kmhel_123.txt.gz
Helicity
21 41 21 12 7 12 26 45 48 37 34 25 20 14 15 -1 -7 -13 25 15 45 42 41 29 0 -13 -18 -20 -29 -42 -7 18 -24 -6 -9 -13 -1 -19 17 101 100 87 71 57 20 30 24 -8 39 -25 6 15 -87 -42
41 17 44 38 23 6 15 28 35 28 41 33 24 6 21 10 8 -3 29 20 21 33 32 -2 -14 -46 -48 -49 -39 -4 -7 -21 -51 -22 -14 -13 4 -14 21 84 9 47 67 148 55 -7 5 -42 -29 4 10 20 -7 -8
50 17 73 50 5 12 29 29 32 43 29 55 14 -10 21 15 14 -6 39 36 33 42 19 24 14 18 -12 -11 -4 -7 29 19 -43 -7 -13 -18 -2 -20 46 54 34 33 33 77 105 55 86 44 64 20 15 34 32 25
65 54 77 43 15 23 3 25 36 33 -1 -8 -1 -4 29 20 19 5 32 19 17 28 58 63 23 -2 -6 -4 13 15 -6 21 -8 -8 -10 -13 -15 -17 18 50 68 2 -15 42 59 51 83 59 55 43 40 24 28 34
95 84 41 43 52 35 24 45 50 46 47 26 11 41 33 24 23 9 17 15 7 16 66 33 -20 -8 3 20 20 17 22 -15 -25 -17 -12 -11 -24 -19 -12 17 6 -29 -41 -7 19 16 42 71 69 23 21 28 17 7
112 99 62 55 64 68 62 65 67 62 22 35 46 44 40 32 44 68 43 20 15 27 34 76 68 10 15 16 41 38 30 4 -11 19 -1 -13 -19 -27 -17 -21 32 43 -27 -37 10 28 14 -3 -4 -8 2 4 4 19
137 144 97 67 77 61 64 62 83 59 36 47 50 40 35 42 27 73 73 47 9 27 35 51 47 41 27 34 32 30 11 18 20 23 21 3 -14 -28 -5 5 29 1 -31 -38 -5 -3 -18 5 3 11 14 10 16 32
102 82 65 73 66 54 61 65 67 60 31 40 56 46 47 24 57 47 31 20 7 30 32 44 39 15 22 18 23 29 16 34 11 20 5 -17 -16 -29 -23 42 33 10 -25 -29 -4 -23 -10 -2 -5 2 -2 4 7 15
106 93 48 43 76 61 70 64 52 48 56 56 58 61 89 102 82 64 30 7 21 51 46 43 48 36 5 -14 7 16 21 9 -12 -3 -5 -20 -22 -26 43 57 42 5 -1 0 0 -4 7 9 6 9 10 15 12 10
94 119 86 53 58 80 89 78 65 49 56 74 180 204 171 92 67 57 46 66 59 56 56 30 6 4 5 10 -2 11 -9 1 -2 -7 -2 -16 10 100 105 82 38 24 21 23 23 22 13 13 17 20 22 24 19 18
29 102 103 85 50 61 72 73 49 90 102 224 234 181 90 51 59 68 97 100 90 44 20 25 20 5 42 46 33 23 13 1 5 5 -3 -14 25 62 50 46 47 52 46 41 34 33 27 22 26 23 21 20 19 16
22 71 77 65 49 73 54 57 84 131 195 177 145 101 73 68 117 127 119 104 84 36 43 33 29 33 66 61 54 32 15 16 19 -4 5 8 44 59 39 46 56 57 46 40 40 40 38 33 30 23 26 29 25 16
41 72 77 68 82 63 62 58 113 106 102 165 122 124 151 100 138 149 126 171 87 35 34 46 48 60 64 49 64 48 21 10 26 10 17 54 33 56 53 49 44 50 56 52 57 58 47 43 44 46 47 53 46 52
39 49 54 46 51 56 61 96 99 97 174 170 182 161 153 115 153 107 94 62 28 25 16 29 59 48 55 64 57 22 12 14 -18 -24 17 49 54 50 48 42 35 56 53 46 48 50 53 52 52 51 57 48 57 67
77 46 51 60 53 61 59 55 67 138 162 160 114 117 107 70 91 118 86 65 68 75 71 63 52 42 55 45 34 35 8 -12 -9 17 37 56 43 44 57 62 70 71 58 52 54 50 46 39 28 24 35 57 78 95
48 55 71 42 51 49 70 61 162 182 125 85 66 91 103 103 27 56 71 93 62 65 54 72 79 42 32 48 28 16 27 2 22 53 63 46 66 70 77 79 72 64 52 44 44 34 36 32 33 26 33 75 89 114
70 140 38 45 63 92 60 165 227 159 84 57 88 49 48 100 88 79 69 43 54 73 73 84 72 47 48 37 38 55 59 83 70 80 94 122 81 88 94 84 82 69 62 53 39 39 40 38 1 19 90 98 91 96
79 80 70 65 101 159 158 205 173 72 12 1 21 102 65 27 41 62 77 94 113 78 61 67 80 59 48 35 46 44 72 109 134 126 124 92 92 91 89 91 99 86 74 72 49 21 23 66 50 77 63 62 52 77
50 80 67 99 194 158 127 145 131 -39 -95 -121 -32 19 37 17 28 43 72 99 102 96 95 81 58 50 53 67 71 90 100 103 92 102 114 118 114 104 90 92 76 81 92 73 78 78 74 69 57 33 30 38 50 79
31 36 26 82 190 159 99 37 72 -24 -129 -98 -52 -24 24 45 30 65 95 102 104 96 97 100 101 85 82 79 129 125 102 98 99 78 81 104 114 93 114 114 130 104 76 69 60 70 64 50 41 21 19 14 30 67
19 16 -4 64 103 98 37 8 13 -56 -56 -35 7 25 14 20 48 79 68 99 113 135 113 96 75 93 116 114 131 124 145 170 172 169 167 143 124 112 112 110 101 101 85 75 65 59 44 32 20 10 4 4 13 31
100 38 116 64 -21 18 12 26 6 20 16 -25 26 49 30 52 59 71 63 87 92 89 109 80 88 84 104 134 151 181 163 150 145 134 133 132 141 135 130 110 87 85 75 70 59 54 41 31 18 11 0 0 0 17
134 161 87 39 -16 -13 -48 -5 39 39 24 34 66 68 37 38 50 72 73 84 87 97 131 151 148 179 133 129 136 145 146 138 146 149 143 141 133 114 93 81 75 78 76 68 45 41 37 17 23 6 6 2 9 13
160 121 49 3 -37 -21 27 53 70 45 45 13 19 38 23 41 49 66 78 101 125 140 153 143 125 120 117 110 130 142 150 143 137 137 124 101 104 95 79 75 69 66 59 50 44 39 36 36 12 25 20 23 26 25
88 63 27 -1 27 -12 -1 24 51 63 63 54 57 47 32 26 39 59 66 78 111 146 147 145 143 142 146 151 134 135 129 125 119 113 96 86 79 67 68 65 70 67 58 58 72 62 59 38 40 39 37 38 43 40
88 77 64 32 14 14 39 51 46 50 64 66 53 58 30 23 15 38 91 126 141 146 149 145 133 130 140 132 108 107 101 84 81 105 102 90 93 103 99 95 91 92 69 59 52 63 62 53 55 47 50 48 49 42
27 51 94 156 127 105 100 96 59 32 22 5 -11 -22 -5 -18 0 116 135 138 121 120 113 103 95 99 103 101 92 87 86 89 112 108 78 77 79 80 89 100 94 74 46 54 47 42 57 55 52 47 49 51 52 52
79 59 4 59 82 110 46 62 49 47 53 69 84 -13 -38 24 62 105 80 75 81 67 63 65 71 73 80 81 76 73 74 68 63 56 54 55 59 60 58 51 49 40 36 42 43 44 43 43 43 40 44 47 52 39
36 65 99 131 132 105 110 99 73 95 118 115 85 85 79 78 66 52 51 40 32 34 44 54 50 50 58 61 63 63 60 56 54 72 68 75 70 82 47 42 39 40 38 40 44 50 51 50 50 48 43 43 44 36
35 118 92 111 110 87 81 119 96 113 137 116 61 39 43 47 32 36 27 24 23 36 37 42 47 46 62 66 82 90 81 79 78 86 77 87 95 55 38 39 36 34 31 33 32 33 30 25 32 35 41 42 47 50
90 111 109 111 98 80 78 85 70 68 82 73 53 48 69 40 10 -10 -8 -5 7 17 28 43 54 57 78 83 90 98 101 82 77 79 70 58 50 44 43 35 32 29 27 27 33 41 40 40 46 46 51 56 55 47
116 94 71 60 58 50 95 71 84 72 52 55 70 60 55 40 26 -3 -21 -7 10 29 37 49 72 87 85 89 89 97 107 85 72 64 61 54 48 44 37 36 34 35 35 34 39 44 47 47 49 50 49 53 57 56
92 72 51 57 80 65 76 95 95 86 85 83 75 53 38 29 28 2 -4 2 19 45 63 76 92 99 101 94 91 84 72 71 63 56 52 48 41 34 24 33 30 33 33 36 39 38 38 38 41 40 43 39 39 39

GFSWCAN_con_3kmhel_126.txt.gz
Helicity
46 44 40 39 46 38 38 46 64 69 75 70 59 49 51 75 92 95 54 54 69 34 21 38 42 52 27 3 8 -35 -1 -8 -2 -15 13 -2 -2 -13 -19 43 6 39 65 72 15 7 49 52 -11 -52 -18 13 -36 -57
40 50 39 39 32 2 25 55 72 74 80 73 74 60 55 68 61 71 51 40 30 28 15 8 -4 -18 -1 6 -10 -16 -3 -16 10 -9 1 -4 3 -16 1 36 8 4 27 59 -4 -19 -5 -25 -53 18 -10 -9 20 54
55 51 43 23 18 10 18 46 62 61 85 84 72 50 49 51 36 39 31 29 26 12 -1 19 37 29 -5 -24 -26 1 38 37 32 10 -12 -11 -5 -8 11 20 29 61 -12 -6 59 11 18 -47 -32 8 22 28 36 30
64 59 51 33 24 10 11 25 48 32 35 32 53 51 37 43 37 8 26 20 14 21 37 32 38 47 18 -4 -5 -5 2 38 28 -9 -3 0 2 -5 1 12 45 -16 -19 -12 20 0 27 13 -4 23 14 -3 -10 -3
79 66 45 53 48 21 16 32 32 23 26 -4 25 34 16 42 35 26 28 12 13 26 47 19 11 19 52 30 4 5 16 23 10 -6 0 2 -6 -10 -13 -6 -5 -1 -53 -47 -13 -8 20 29 -2 3 7 -6 -12 6
115 48 82 48 48 36 21 19 21 20 -7 -19 20 5 25 52 53 80 48 1 10 19 31 50 71 34 28 9 9 23 15 34 -10 8 8 12 -20 -18 -14 -31 71 71 40 42 -28 5 -18 -10 -16 -10 -3 2 12 24
56 82 40 102 70 46 22 19 23 30 1 13 14 31 55 63 43 84 76 40 22 40 36 45 48 44 12 22 26 29 25 37 -13 18 47 29 -9 -23 -5 -11 81 58 12 23 -20 -13 -8 5 -3 5 2 5 12 29
27 8 59 90 84 60 55 39 28 34 24 18 21 61 66 59 58 62 34 -6 7 36 36 49 50 36 63 18 36 52 62 46 25 38 17 -5 -15 -5 -21 73 86 43 2 -5 4 -12 6 0 15 12 11 18 19 24
127 96 75 47 52 50 48 45 56 58 60 56 72 74 133 115 88 65 39 11 31 52 65 55 54 59 29 -1 33 53 49 18 1 0 -4 -14 -16 -23 32 109 82 39 8 10 10 39 23 24 20 23 25 27 27 22
98 129 117 115 91 56 71 77 90 60 71 88 180 173 143 96 77 30 52 63 66 60 53 55 26 59 11 -12 30 24 28 10 3 -9 -13 -5 7 106 136 100 71 53 42 41 45 46 35 41 39 36 39 46 42 30
86 94 107 77 65 76 64 101 90 90 147 223 219 197 90 32 57 81 90 70 65 61 42 28 24 19 13 16 0 6 10 10 4 2 8 -12 27 73 40 59 73 69 65 66 59 61 53 45 38 33 37 42 33 27
53 84 64 43 70 69 100 99 120 172 190 174 130 92 72 81 123 120 96 88 65 56 43 49 32 33 59 66 72 49 24 32 10 2 5 4 44 37 56 80 76 83 75 71 70 70 65 58 51 41 46 49 51 55
49 76 93 70 33 104 163 148 114 81 112 92 114 155 149 134 144 145 129 126 114 77 64 81 70 85 89 55 82 75 61 35 43 18 14 55 35 34 60 62 72 76 75 67 62 59 56 47 43 43 47 46 45 56
52 49 109 82 41 72 100 82 55 77 183 148 222 231 176 104 138 112 94 67 59 58 67 77 66 61 54 68 77 73 54 52 44 12 34 25 41 48 53 47 62 88 63 51 61 56 54 48 35 30 48 48 67 82
31 40 100 106 67 75 60 68 59 156 178 139 157 149 111 115 51 75 119 98 64 52 80 80 56 50 46 55 51 58 46 28 22 37 44 65 53 39 61 73 78 70 55 57 59 47 54 47 39 29 34 61 51 69
43 72 106 83 76 60 59 67 101 152 172 143 111 129 79 71 94 64 91 98 92 65 79 64 81 66 32 52 30 23 44 29 56 52 61 59 81 99 84 64 72 71 66 72 75 54 48 36 24 11 -8 51 29 70
49 144 48 59 53 104 220 233 147 113 121 88 30 21 84 115 118 57 86 95 84 92 77 72 61 22 45 25 30 76 80 93 69 102 115 158 117 90 66 61 70 57 60 83 88 68 44 42 39 71 88 87 55 56
104 92 57 65 140 230 226 202 157 118 71 58 23 52 87 84 52 34 59 62 72 71 28 52 59 42 55 49 58 84 86 107 128 125 123 116 111 107 101 95 99 82 89 89 72 74 102 84 77 78 70 59 44 48
90 100 75 108 213 227 136 125 210 134 90 -23 -74 -3 33 44 52 53 52 63 69 88 84 69 56 55 105 103 65 63 67 61 74 110 82 94 115 118 112 103 80 84 88 75 84 101 96 84 76 67 50 28 10 22
106 110 101 94 191 109 134 133 208 75 0 -76 -76 -65 -38 19 24 29 25 47 70 76 76 95 129 129 110 92 135 129 108 72 60 38 40 82 101 80 109 100 118 103 104 117 104 89 77 77 69 48 30 17 -6 -6
137 127 130 122 135 112 93 136 116 28 -40 -114 -68 -95 -65 -35 -7 1 10 50 78 109 101 118 108 123 146 126 123 102 119 146 149 181 238 191 113 109 126 127 114 120 130 115 92 86 78 72 60 40 26 24 -5 13
152 140 181 193 124 75 7 11 -12 -38 -63 -91 -52 -43 27 34 23 43 45 69 87 112 146 110 100 62 78 109 140 143 121 124 128 148 169 177 194 178 159 143 136 125 100 93 86 82 74 61 40 26 30 11 16 20
73 122 121 75 24 11 -21 -9 -26 -42 -65 -65 -4 49 58 53 62 39 48 85 92 101 140 180 179 187 112 100 109 123 135 143 141 140 142 150 156 146 133 122 111 112 117 96 77 71 63 45 39 24 26 20 20 20
148 89 54 7 0 -29 -17 12 3 21 43 33 25 33 37 65 53 54 50 87 100 84 124 136 147 138 110 86 112 126 153 146 138 160 175 149 137 120 103 98 94 90 83 63 64 63 63 56 41 43 37 34 44 48
41 18 11 -18 -23 -36 -26 -27 6 29 26 30 33 36 18 19 23 27 48 71 70 104 131 142 156 141 132 156 133 134 156 170 146 147 128 127 111 74 74 75 92 94 87 97 94 72 65 49 52 55 62 72 70 58
-7 21 20 -10 -22 6 5 5 7 22 48 42 43 71 37 32 26 33 84 116 121 158 138 137 146 159 198 162 126 123 117 108 102 116 115 114 124 145 149 133 129 111 84 77 71 74 63 61 60 54 54 50 49 50
-7 5 75 111 81 86 92 80 69 64 39 38 43 39 23 8 8 100 157 186 191 184 168 148 120 115 120 111 112 98 96 106 150 145 107 99 102 108 122 133 124 83 54 60 60 65 73 58 53 48 44 45 53 51
53 70 23 118 182 159 116 88 69 62 73 71 60 24 10 59 97 137 160 171 148 125 114 117 115 98 100 93 84 80 85 84 83 72 70 75 69 73 76 71 62 50 52 52 49 58 60 65 58 49 55 52 47 36
46 93 133 107 100 68 67 78 68 94 109 145 77 69 81 155 127 123 117 97 71 58 58 56 59 63 72 76 81 83 80 81 78 98 97 107 112 127 66 56 52 53 50 52 45 39 45 45 43 55 58 56 47 45
41 45 58 77 74 65 93 149 118 134 194 179 150 123 124 106 161 104 74 57 41 41 45 45 45 44 56 65 89 96 93 97 102 143 163 176 141 86 62 60 50 47 42 44 43 41 33 34 32 26 38 48 66 64
155 194 151 128 105 128 129 144 135 153 163 142 100 61 60 64 65 92 58 47 52 43 40 43 48 61 65 80 88 104 121 97 101 107 102 90 75 71 67 48 44 36 35 39 38 50 49 48 53 56 66 61 53 53
115 110 122 123 111 120 119 101 96 93 83 66 62 48 51 76 60 28 1 13 24 30 38 50 65 83 88 92 97 115 129 105 93 88 86 76 72 59 45 41 36 38 36 29 40 45 46 45 47 47 46 59 58 39
142 133 136 113 79 79 80 62 55 60 56 49 59 56 74 62 61 36 9 9 22 46 70 92 112 101 100 101 102 97 94 89 82 79 70 62 50 35 27 26 20 28 25 29 32 31 31 30 34 31 34 33 34 35

GFSWCAN_con_3kmhel_132.txt.gz
Helicity
17 6 39 63 23 30 32 50 52 41 63 74 100 121 125 137 139 127 195 236 122 97 187 133 78 72 65 46 70 26 30 16 14 -20 -15 -3 8 3 17 13 12 11 14 -2 33 23 9 -0 -9 -40 8 3 18 18
28 32 47 50 38 31 49 53 41 50 78 90 86 126 126 135 133 111 169 197 143 84 83 98 62 54 61 48 85 66 46 23 16 -3 -17 -5 3 14 12 13 10 -0 -32 -24 21 24 -35 -12 -38 -20 -7 10 -1 7
48 32 32 36 36 51 48 53 48 71 90 95 99 131 131 131 138 108 143 145 116 104 90 49 27 20 20 6 23 79 43 25 22 18 -0 -10 -9 18 16 -11 -24 -0 36 6 -24 -40 -36 -7 -31 -30 -3 29 39 -17
45 57 50 42 68 45 73 65 89 95 103 102 108 127 134 111 130 125 178 160 106 86 52 53 42 26 20 28 30 54 71 61 52 35 11 4 7 21 15 -12 -20 -3 54 12 -14 -9 1 -38 -49 -13 2 -24 7 7
44 44 54 58 64 55 83 84 105 115 118 111 108 111 117 100 116 128 135 155 112 41 34 22 40 13 27 46 53 71 85 68 48 31 36 19 29 31 29 19 7 43 47 -23 -34 -25 -11 -17 5 6 7 6 37 27
50 52 52 57 47 53 91 106 110 107 100 113 108 98 99 108 111 118 117 107 97 82 54 40 18 -2 36 54 42 31 34 53 60 59 34 28 30 37 44 23 26 47 45 47 25 36 16 20 60 62 51 41 62 59
44 31 50 49 55 58 67 80 84 91 78 88 82 89 100 133 116 92 61 71 66 54 56 51 34 3 12 18 14 15 23 33 52 44 34 33 34 29 26 36 40 51 45 46 5 30 38 79 57 61 68 51 56 53
57 21 40 44 37 46 71 85 54 46 58 76 80 94 115 141 142 146 109 64 61 60 51 46 31 16 9 26 20 -8 24 37 33 42 22 14 21 30 25 27 109 118 138 117 111 142 127 109 101 84 50 33 34 28
67 56 21 28 35 26 43 51 54 56 68 82 82 132 188 172 152 100 53 59 50 42 55 47 38 25 9 27 23 34 37 33 47 25 8 31 17 14 17 91 116 104 112 113 141 119 86 77 61 50 45 43 42 37
126 89 38 72 66 35 46 72 93 96 68 70 151 220 193 150 55 69 86 75 70 57 42 43 29 37 29 26 47 53 38 18 7 16 45 38 30 70 100 137 135 125 112 97 75 62 60 59 57 58 56 50 42 36
88 126 106 105 93 57 63 100 116 104 108 163 176 188 190 49 117 101 92 81 63 64 37 28 18 59 35 52 50 48 52 27 -6 16 40 21 28 75 128 150 120 109 110 110 101 83 68 62 53 53 50 43 38 43
-7 69 116 100 75 72 104 127 102 111 101 85 110 166 167 144 116 103 100 83 55 44 29 39 4 18 52 60 59 59 73 66 7 49 36 18 14 102 145 115 144 121 115 101 80 81 80 70 61 55 49 46 49 45
-10 1 74 138 143 87 95 89 36 70 80 169 182 175 154 138 128 104 78 67 57 31 16 21 41 30 60 80 81 79 74 70 88 65 63 38 75 101 135 129 122 102 89 78 71 72 76 59 52 62 68 65 57 48
97 41 44 71 74 46 63 28 36 72 108 144 150 148 130 116 111 87 64 91 47 36 63 76 77 63 53 74 66 68 55 79 98 94 44 58 142 167 135 104 99 77 70 64 60 61 65 65 55 55 60 52 72 94
103 97 53 38 64 32 43 23 35 86 92 130 98 116 116 111 85 88 73 74 82 33 89 95 84 77 69 63 53 61 60 70 58 41 37 104 152 156 134 119 93 72 53 41 45 51 46 56 60 48 60 70 103 83
76 120 127 73 56 38 64 134 87 72 107 115 104 104 124 119 107 103 95 84 110 86 105 75 72 82 46 52 72 55 82 61 29 32 102 147 145 126 115 97 91 81 68 65 65 64 53 48 48 63 100 90 63 51
88 152 71 48 99 105 168 197 153 120 117 135 137 122 102 114 116 96 91 90 90 58 71 51 67 62 77 67 60 66 64 68 93 127 104 98 102 97 99 115 118 101 92 88 82 62 53 81 118 122 99 67 73 74
127 100 60 73 134 377 360 225 154 120 133 129 142 105 88 62 66 77 65 88 94 95 83 41 37 62 82 82 84 68 68 76 66 85 112 101 101 120 122 123 88 91 101 79 63 76 112 135 126 88 66 68 84 77
109 103 74 139 461 452 261 264 213 169 134 93 102 65 44 35 59 63 73 74 64 67 78 53 59 52 87 88 82 85 103 98 91 84 84 96 92 106 131 127 110 100 89 106 124 116 113 112 87 73 72 80 69 51
57 75 77 129 344 411 301 265 225 160 140 85 81 79 66 59 57 130 139 86 37 48 65 65 66 80 98 93 90 127 121 133 160 133 102 87 90 111 92 85 85 94 140 179 186 142 132 111 96 78 71 67 66 57
84 92 118 312 422 298 209 205 166 119 90 90 83 89 63 52 46 104 104 58 46 22 46 84 105 133 160 158 154 163 179 157 142 123 138 119 97 128 128 116 145 162 151 137 144 123 102 82 72 76 74 58 51 32
179 231 263 335 347 284 179 178 117 96 112 110 92 72 20 -18 -12 26 38 41 34 39 74 92 110 148 175 158 143 148 145 174 191 216 228 215 195 168 144 134 171 151 132 96 88 91 77 69 71 78 76 56 44 48
326 404 396 354 262 204 171 136 111 100 54 53 86 48 -10 -37 13 53 19 35 62 81 89 116 117 123 125 118 144 156 148 166 171 166 159 151 144 135 140 147 123 119 118 82 71 78 66 58 70 73 74 73 64 55
321 355 308 274 198 154 157 112 88 55 48 56 58 22 -26 7 4 42 72 100 117 94 94 113 143 154 150 145 163 191 223 198 195 189 138 128 114 93 115 137 145 139 123 135 98 76 73 54 60 76 79 84 81 60
119 144 102 147 137 123 89 64 55 47 41 34 3 7 -8 -6 6 32 51 76 138 95 71 78 111 135 149 148 167 186 165 143 153 163 144 123 99 138 175 168 162 154 124 133 137 131 75 64 64 58 64 64 62 71
99 112 60 25 34 16 -5 22 23 29 24 -5 -10 -0 2 10 16 11 44 66 81 53 54 72 103 128 142 143 151 145 120 135 141 120 91 104 128 175 195 188 170 129 113 101 102 127 125 73 61 60 38 49 46 53
11 36 51 35 28 21 29 33 40 20 -11 10 14 37 24 -1 -5 23 65 86 89 92 103 123 141 146 166 164 134 84 69 93 82 82 82 111 131 141 157 159 136 103 99 100 92 88 93 103 84 71 64 61 47 35
-15 5 12 72 75 79 36 43 21 15 28 27 66 5 -28 -24 12 47 48 110 192 217 210 205 171 157 149 110 87 101 119 139 158 159 163 161 138 135 135 124 113 115 113 95 89 78 79 89 91 78 62 60 49 42
-3 39 47 61 75 48 35 20 35 55 86 90 68 59 61 91 69 65 131 159 199 214 199 191 185 184 182 164 142 128 110 113 141 120 127 126 117 102 94 110 103 97 109 107 74 68 76 76 77 81 68 72 79 88
28 63 54 53 44 22 49 57 58 92 119 141 149 130 121 106 117 143 174 177 158 118 111 121 111 117 109 126 121 127 112 87 65 83 119 153 113 92 91 89 84 85 92 97 92 83 84 98 123 110 100 82 74 86
108 195 120 86 38 53 92 90 109 114 122 131 156 139 140 129 161 152 134 111 111 106 103 78 54 61 95 94 93 111 95 73 95 112 125 138 121 103 91 77 71 68 71 80 83 78 79 81 81 88 82 75 66 62
128 120 127 123 112 114 123 111 111 126 147 171 165 183 179 153 88 70 104 127 90 79 42 60 65 39 37 62 68 66 81 111 110 114 126 118 108 89 88 84 71 64 77 87 82 69 76 75 66 64 65 64 61 60
193 197 165 123 107 105 122 130 98 90 126 102 83 111 119 86 40 31 68 69 85 78 74 77 98 110 107 117 118 122 121 107 101 103 101 92 86 76 63 56 55 64 79 76 62 59 67 71 67 63 58 59 58 59

GFSWCAN_con_3kmhel_135.txt.gz
Helicity
70 81 93 97 94 63 54 65 49 69 55 58 92 121 135 102 98 152 210 252 136 145 216 115 111 70 85 71 75 29 54 28 52 66 54 13 20 11 8 18 31 39 42 12 16 36 23 6 10 -10 -15 -24 -14 -14
34 78 88 71 62 30 29 51 66 94 99 118 113 111 123 112 130 153 208 250 211 138 175 158 122 79 38 30 73 48 28 44 26 45 -14 -20 5 4 7 5 30 26 42 31 31 23 27 2 30 -32 -27 -17 4 13
26 47 73 67 47 57 51 54 69 84 106 145 150 130 126 101 100 119 200 233 186 192 211 122 81 60 69 78 53 51 26 16 20 16 4 -13 -6 16 -4 12 30 22 39 47 38 34 -19 16 -28 -31 -21 1 9 -2
9 14 57 68 44 53 56 74 87 87 111 131 125 120 116 113 144 141 208 216 149 133 92 91 72 43 32 58 66 56 58 53 51 34 29 10 -6 10 12 29 6 -2 66 53 -28 -5 -31 30 -35 -23 -5 -9 -6 13
25 19 38 33 48 66 55 60 69 84 107 109 117 114 117 103 131 206 234 215 120 57 74 61 64 49 12 31 83 107 84 67 52 50 44 20 20 25 39 42 27 57 43 60 -39 9 -22 -12 6 12 45 36 27 14
57 55 44 54 42 72 65 56 72 110 104 97 103 107 116 124 143 167 184 167 163 133 131 77 52 32 22 23 38 61 63 52 50 49 32 13 33 54 40 47 36 54 57 55 29 37 -13 37 73 76 56 38 41 39
66 64 63 63 60 69 74 74 104 115 101 105 113 123 123 105 96 110 96 110 112 94 76 84 58 38 14 20 14 17 17 30 42 38 38 39 17 45 42 47 27 34 55 73 49 52 57 77 62 66 50 50 51 44
63 66 64 52 54 89 94 91 90 96 105 110 123 142 149 118 121 168 191 140 113 73 77 59 55 38 -1 7 21 6 23 19 23 34 29 26 8 17 15 28 53 96 136 113 99 110 113 112 86 65 46 34 38 38
47 52 43 35 37 64 71 84 87 89 85 97 111 157 188 181 150 109 83 105 96 64 62 60 49 30 11 20 26 31 36 38 22 21 13 31 9 5 13 55 78 89 62 84 86 89 84 73 56 44 36 44 44 37
43 37 38 27 49 53 69 72 76 71 70 99 197 204 180 152 78 94 109 92 91 90 74 72 49 52 22 18 23 38 31 30 23 11 37 37 34 60 67 98 112 120 85 62 55 38 49 45 43 39 42 42 41 29
79 49 57 38 41 73 75 72 62 70 103 207 192 176 173 110 122 109 111 102 87 90 73 72 59 73 35 48 40 20 38 39 41 25 41 30 25 88 122 144 112 100 96 113 108 94 77 62 59 54 53 55 44 28
68 64 28 58 74 62 71 83 88 106 117 120 126 179 185 156 118 116 133 113 94 84 69 72 46 66 49 39 50 32 61 58 37 64 48 34 39 138 166 126 93 84 91 89 76 64 63 60 63 66 64 46 38 31
78 16 73 60 80 77 103 87 78 93 83 177 206 180 164 139 127 124 120 132 107 61 52 46 88 56 51 53 66 66 91 67 69 68 93 88 73 111 129 123 115 95 79 65 55 54 64 69 65 59 51 49 52 53
109 57 77 96 78 87 56 60 63 108 136 200 210 206 178 160 137 121 142 144 134 105 54 65 98 74 55 78 61 87 54 69 75 66 90 52 91 116 122 104 89 67 67 60 47 43 49 52 43 37 44 46 62 63
77 121 71 107 122 78 96 79 97 120 132 174 170 214 182 139 185 160 117 133 129 76 79 99 95 81 91 90 63 76 79 55 42 49 34 38 98 110 112 90 91 82 70 44 31 28 31 48 46 41 54 53 70 61
70 170 279 118 101 75 97 121 109 72 90 126 125 127 170 147 145 180 157 138 123 98 118 93 86 96 84 87 88 75 77 49 37 38 49 97 128 108 105 91 87 85 85 70 50 32 33 46 52 55 64 95 81 66
96 196 100 44 57 109 112 93 75 68 94 130 120 94 88 119 102 89 69 90 109 91 98 89 105 94 88 96 89 61 53 46 41 71 99 87 79 85 89 92 85 87 87 82 64 41 50 65 91 101 75 65 61 59
139 94 180 76 182 204 178 121 82 66 72 72 87 79 80 83 87 91 82 91 100 103 97 89 81 114 113 115 74 56 67 75 58 28 103 96 94 88 91 98 86 91 104 108 110 99 114 120 96 69 72 57 53 67
105 44 141 208 190 208 143 124 108 71 74 84 85 92 81 65 76 82 78 68 80 88 83 75 94 99 85 77 78 74 88 96 91 104 123 111 104 106 102 90 88 109 116 116 121 113 99 86 83 81 62 63 62 47
65 15 48 195 362 315 183 157 135 63 58 61 66 82 81 63 51 68 90 103 71 61 78 84 76 68 70 68 66 78 114 125 179 168 143 127 124 132 111 91 86 102 122 136 146 129 108 95 89 72 62 62 63 56
153 93 83 169 330 263 206 191 159 96 66 89 78 79 62 66 67 62 64 80 107 75 61 50 61 57 95 104 112 132 167 161 140 132 119 141 142 144 122 104 100 100 111 110 112 93 81 71 64 69 69 64 54 43
178 150 166 290 366 358 207 239 183 85 104 80 108 98 68 76 72 67 65 73 61 63 77 64 44 78 130 130 140 155 147 166 162 162 209 218 185 163 131 104 120 123 108 73 73 68 58 59 66 73 79 68 59 69
140 143 256 328 271 234 232 228 177 150 104 66 100 103 93 85 79 66 27 31 52 63 85 65 89 109 132 133 149 142 140 156 168 174 188 196 172 146 131 125 114 103 87 61 67 69 66 60 69 71 73 79 80 78
250 218 150 171 177 190 224 211 140 119 116 93 74 93 84 68 32 6 16 43 63 105 135 132 164 179 166 156 146 133 138 150 166 159 143 153 153 125 118 115 114 106 87 93 94 89 81 79 83 80 84 79 72 60
151 227 168 178 170 143 154 136 136 119 80 69 83 68 36 36 3 10 19 10 44 81 112 121 140 130 127 150 155 159 144 146 153 147 115 98 129 132 134 137 135 122 98 120 122 119 91 91 102 85 69 67 58 45
124 126 127 135 174 142 112 107 79 65 67 56 25 26 43 42 7 -25 -9 -1 12 48 75 86 107 126 136 130 153 143 114 117 131 113 80 73 100 142 151 154 141 115 100 95 97 107 106 93 101 83 71 61 59 54
68 61 128 142 119 125 140 118 83 55 25 1 10 36 6 -2 7 20 31 35 28 19 43 54 68 92 111 118 127 107 105 87 69 70 87 103 109 114 140 131 129 100 93 97 93 88 92 91 99 89 84 73 63 52
56 26 37 107 94 90 36 42 10 -14 -11 0 24 5 -1 -10 17 16 -6 11 52 111 167 157 143 145 157 124 115 136 147 151 166 163 171 173 154 138 128 121 105 100 92 87 87 74 75 91 99 92 82 79 70 65
-2 30 19 17 23 -7 -34 -48 -35 7 54 44 22 20 16 36 20 15 21 53 93 161 183 179 164 195 214 176 133 116 132 144 159 126 121 114 103 90 90 94 96 92 91 102 89 79 73 75 74 87 77 71 74 79
-50 9 -12 9 2 4 30 33 20 49 82 92 91 97 92 72 48 63 114 127 128 116 128 136 144 147 128 129 132 123 80 52 54 91 108 99 82 96 98 100 96 82 78 87 87 77 89 112 97 84 85 80 72 65
51 97 65 53 22 52 79 95 118 106 98 92 109 87 82 69 79 100 120 141 173 190 179 134 110 92 106 97 106 112 78 48 50 51 72 115 150 126 100 83 74 71 75 90 84 83 79 76 75 75 74 69 61 63
91 99 80 67 74 103 93 76 72 76 75 82 93 146 147 140 77 94 150 231 236 175 107 109 91 38 26 51 64 55 45 94 94 95 120 116 109 91 80 74 69 79 93 87 78 73 64 72 71 70 69 67 65 65
128 131 117 89 88 87 95 93 68 58 79 68 58 80 113 84 58 130 144 129 164 132 89 70 82 90 74 73 76 83 108 112 109 103 102 97 91 82 74 71 71 83 87 80 71 62 71 78 75 73 74 73 73 76

GFSWCAN_con_3kmhel_138.txt.gz
Helicity
58 76 94 99 94 119 156 182 168 149 143 110 78 44 32 49 45 90 116 151 106 142 271 167 168 130 160 105 107 64 103 88 104 113 106 100 99 47 42 41 49 64 64 67 70 51 33 37 18 23 -38 -38 -28 -21
62 72 88 104 109 117 117 118 134 140 125 47 -13 11 18 48 79 127 167 223 203 244 208 225 194 148 78 36 65 104 52 89 69 105 83 95 89 38 54 30 40 32 55 49 60 34 44 46 -43 27 30 -22 -5 -1
55 63 90 122 114 125 58 66 70 63 102 128 130 123 110 119 115 133 214 238 299 285 306 263 234 196 125 94 58 62 62 56 69 52 77 78 78 14 39 12 34 40 52 55 49 32 47 1 -20 12 1 -24 -11 13
23 28 75 70 68 71 62 90 107 98 100 99 101 101 97 103 142 180 237 241 184 232 198 193 145 115 86 66 65 37 70 78 71 66 82 83 62 5 7 26 34 42 66 39 51 41 32 3 3 -7 -7 41 27 29
57 55 44 60 46 45 62 85 114 114 125 115 90 101 140 168 169 253 255 250 167 62 129 151 110 114 64 57 100 93 108 99 86 84 90 83 47 31 20 36 49 71 52 56 35 28 20 13 19 34 51 42 30 22
12 41 57 55 51 50 62 80 113 117 129 139 126 134 211 215 182 166 184 193 165 169 208 156 105 61 64 81 109 119 96 71 59 66 71 64 52 74 51 1 53 52 60 53 59 57 36 48 60 50 43 31 28 30
1 34 28 51 31 51 69 82 96 107 103 125 136 122 100 111 145 131 91 133 161 117 106 131 96 58 38 39 47 50 39 29 39 48 55 63 66 70 51 5 55 41 57 76 77 84 58 46 36 59 46 29 37 37
23 38 40 47 68 41 56 76 85 92 99 107 108 93 90 133 152 235 330 174 105 81 92 68 77 67 22 24 30 18 9 15 21 35 36 46 50 52 15 14 44 69 98 108 106 100 94 97 68 48 35 26 28 34
60 55 60 70 60 62 65 63 71 91 91 128 120 119 169 190 165 173 213 151 100 71 66 60 60 40 33 32 27 16 16 27 18 31 23 49 45 25 12 22 60 49 37 58 78 79 81 75 48 36 30 32 21 17
61 53 65 66 62 53 60 71 88 111 111 142 177 170 166 164 126 145 162 139 122 108 72 81 74 67 42 40 31 21 13 23 41 31 43 42 46 58 41 64 93 79 64 52 50 33 42 47 48 34 28 22 22 14
52 50 71 67 51 48 60 55 70 97 169 185 176 159 131 149 136 122 125 126 107 81 74 90 80 92 45 50 45 15 20 24 55 40 62 41 30 51 86 144 127 103 91 95 100 91 79 55 43 35 40 45 46 25
34 48 37 21 18 41 42 58 88 152 178 101 85 146 163 147 129 112 151 134 107 78 94 101 101 96 78 50 53 29 45 43 55 67 63 41 32 58 109 98 96 90 88 94 81 60 51 51 46 41 38 44 44 26
43 45 41 34 39 39 43 46 83 51 77 196 181 164 191 135 153 150 174 163 104 80 85 118 142 89 71 55 66 54 70 55 64 62 58 48 67 31 73 90 92 87 78 68 63 59 54 48 43 42 28 41 32 24
38 40 38 38 40 54 44 45 52 75 133 210 163 229 200 147 133 117 148 138 123 94 87 125 136 86 75 87 58 83 57 72 79 75 53 54 69 42 64 86 82 58 57 57 54 56 50 35 24 23 18 14 33 38
64 44 73 47 84 87 69 78 88 107 137 171 179 236 179 135 138 113 160 180 197 102 99 135 133 92 115 93 71 83 88 67 68 53 44 39 55 116 89 85 87 73 56 54 49 51 39 28 21 11 28 29 47 51
45 119 125 121 87 79 113 124 132 132 140 160 148 154 140 151 188 176 146 166 157 135 119 122 110 117 105 94 95 82 99 73 56 42 42 87 89 91 98 82 75 62 50 55 52 47 49 50 25 16 21 43 55 53
241 235 156 177 162 120 112 122 126 145 107 138 129 112 155 147 148 185 176 147 121 118 134 120 124 99 91 101 92 61 67 60 50 41 36 39 92 92 91 91 76 71 78 67 53 55 60 60 64 71 51 43 51 63
216 162 210 238 247 255 203 152 91 65 75 110 95 96 108 101 91 103 112 140 105 108 110 113 86 107 101 81 62 54 58 64 67 52 56 83 103 107 99 89 81 78 77 73 78 72 68 72 86 69 66 78 77 82
330 212 190 169 204 239 164 120 89 56 60 67 80 94 84 87 105 94 93 111 100 101 94 88 95 81 66 53 58 58 78 96 98 104 123 125 120 123 113 106 101 97 94 85 85 88 90 99 90 89 83 79 65 49
224 134 189 212 177 196 178 105 81 69 54 49 72 80 83 83 77 89 99 95 89 84 83 70 49 47 64 64 62 70 86 124 175 164 148 125 124 128 118 116 110 108 104 112 128 120 111 102 95 95 77 72 80 68
188 406 331 214 221 165 138 127 98 72 55 53 56 66 61 67 72 75 77 70 77 54 41 38 60 81 62 62 63 84 107 141 131 138 123 144 131 149 146 138 130 122 112 100 105 95 93 79 69 78 83 73 65 55
179 200 305 240 212 187 126 133 100 78 81 66 94 72 55 64 59 51 43 61 39 44 75 74 66 96 84 78 92 125 137 165 167 165 186 218 189 174 161 137 132 115 111 84 78 79 71 72 77 78 78 65 61 62
133 158 254 283 199 192 150 153 126 119 70 68 85 79 56 56 55 51 59 55 49 50 93 86 90 98 100 116 140 162 145 153 161 173 193 203 199 182 173 141 125 110 91 75 81 86 77 70 77 74 66 71 79 70
158 137 240 186 134 154 185 168 160 130 96 59 51 55 37 30 63 87 63 58 54 78 97 109 179 188 159 143 115 109 127 157 191 208 183 191 193 167 130 105 94 92 87 82 88 88 91 92 86 84 86 80 69 61
64 113 162 218 209 185 156 163 166 173 110 79 94 70 46 64 55 43 59 22 38 81 95 119 141 139 118 105 107 119 136 155 179 174 131 143 158 128 114 110 114 106 84 104 103 107 94 88 94 96 90 83 66 57
154 133 161 148 158 143 109 119 93 95 95 90 53 64 76 71 48 23 -2 7 26 37 41 69 118 123 111 104 127 131 125 138 158 135 81 67 84 96 101 119 125 100 91 98 103 110 104 96 100 105 91 79 75 66
160 121 161 143 133 139 154 153 133 111 78 62 49 54 35 35 42 26 24 17 14 9 25 58 83 97 96 110 156 154 141 118 89 77 78 80 67 77 115 131 121 97 101 105 99 95 103 97 103 99 96 81 76 66
85 68 104 151 141 142 113 125 92 55 61 89 95 29 -14 5 21 22 -9 -3 5 35 94 96 79 116 145 151 151 167 168 147 139 127 138 149 133 121 121 119 113 104 96 93 91 85 74 80 90 86 83 77 64 59
69 90 89 114 115 107 75 47 20 58 87 67 25 14 23 46 16 -13 -26 -2 57 112 144 144 143 175 226 219 180 141 130 120 135 104 95 90 75 61 70 83 90 91 87 93 74 73 72 74 76 81 77 73 66 65
48 74 40 36 1 12 48 56 45 66 64 48 40 38 42 41 30 30 59 99 109 90 108 142 158 179 173 162 137 102 75 55 63 88 92 61 43 63 80 82 85 78 79 90 89 81 93 89 78 65 64 64 61 58
-0 12 1 4 -12 28 43 65 63 41 51 53 82 33 44 39 36 54 107 127 179 221 233 204 189 163 175 139 101 96 53 23 37 41 51 62 96 100 85 72 69 73 80 86 83 79 81 70 70 69 67 64 60 65
37 -0 -15 -16 15 58 64 47 37 19 48 46 55 91 86 84 58 47 117 246 283 262 196 192 170 81 70 104 105 91 71 86 71 67 87 102 98 83 79 77 75 82 89 80 68 67 76 84 79 76 76 69 67 69
84 90 77 48 45 45 64 56 30 21 51 52 44 51 66 30 8 77 139 152 170 203 184 153 150 154 109 89 92 88 91 112 120 118 119 109 101 92 81 78 83 85 88 82 75 76 83 83 78 78 78 75 74 77